     2.10           OBSERVATION DATA    M (MIXED)           RINEX VERSION / TYPE
teqc 2002Mar14 20081118 10:29:04UTC                         PGM / RUN BY / DATE
MSWin2000|IAx86-PII|bcc32 5.0|MSWin95/98/NT/2000|486/DX+    COMMENT
JPS2RIN 1.40 RUN BY 18-NOV-08 10:54                         COMMENT
build Feb 6 2004 (c) Javad Navigation Systems               COMMENT
Use -p (profile) switch to override ANTENNA TYPE and DELTA  COMMENT
and other fields                                            COMMENT
Air30101b.jps                                               COMMENT
SE TPS 00000000                                             COMMENT
Air30101b_0514                                              MARKER NAME
OBSERVER AGENCY                                             OBSERVER / AGENCY
MT310930514 TPS LEGACY 2.7.1b3 Jul,22,2008                  REC # / TYPE / VERS
Air30101b -Unknown-                                         ANT # / TYPE
  3516176.0227   783972.4705  5245720.7159                  APPROX POSITION XYZ
        0.0000        0.0000        0.0000                  ANTENNA: DELTA H/E/N
     1     1                                                WAVELENGTH FACT L1/2
     7    C1    P1    P2    L1    L2    D1    D2            # / TYPES OF OBSERV
    15.0000                                                 INTERVAL
Forced Modulo Decimation to 15 seconds                      COMMENT
teqc windowed: start @ 2008 Nov 18 09:00:45.000             COMMENT
  1988     1     1     9     0   41.0000000     GPS         TIME OF FIRST OBS
    14                                                      LEAP SECONDS
                                                            END OF HEADER
 08 11 18  9  2  0.0000000  0 11G 1G 2G 4G12G14G30G31R14R15R17R24
  22840526.504    22840526.6324   22840529.9514  120027781.702 6  93528158.40143
      2621.133        2042.415
  22208468.534    22208468.3764   22208468.0574  116706289.922 6  90939982.07942
       490.676         382.365
  23714824.341                    23714826.2834  124622258.385 5
     -2507.685
  21412802.083    21412802.1444   21412802.7884  112525036.170 8  87681860.23146
     -2379.892       -1854.460
  23300542.626                                   122445187.991 4
     -2856.962
  20068763.897    20068764.2094   20068765.4454  105462066.843 8  82178248.63946
       196.896         153.439
  22866229.558    22866230.4014   22866230.5674  120162858.803 5  93633402.25942
      2303.368        1794.806
  20185013.544    20185013.533    20185018.020   108014084.915 8  84010987.408 7
     -3061.226       -2380.990
  19810239.157    19810239.234    19810242.762   105859914.340 6  82335520.142 5
      1309.139        1018.232
  21066001.480    21066000.234    21066003.354   112530803.750 6  87523986.793 6
      2901.014        2256.317
  19313849.751    19313849.304    19313851.434   103279834.533 9  80328792.379 7
      -753.019        -585.668
 08 11 18  9  2 15.0000000  0 11G 1G 2G 4G12G14G30G31R14R15R17R24
  22833034.240    22833033.5144   22833037.3044  119988407.488 5  93497477.19142
      2627.999        2047.826
  22207065.647    22207065.1044   22207064.2994  116698912.940 6  90934233.75843
       492.069         383.449
  23721976.900                                   124659848.560 5
     -2504.538
  21419585.568    21419585.8674   21419586.5724  112560684.985 8  87709638.58946
     -2374.060       -1849.922
  23308690.839                                   122487996.503 3
     -2852.599
  20068196.653    20068196.8174   20068197.9324  105459084.685 8  82175924.88446
       199.939         155.788
  22859646.638    22859647.1034   22859647.1964  120128261.084 7  93606443.06241
      2308.798        1799.042
  20193591.388    20193591.570    20193595.999   108059987.666 8  84046689.543 7
     -3060.048       -2380.040
  19806562.358    19806562.249    19806565.396   105840265.125 8  82320237.373 7
      1309.655        1018.622
  21057848.811    21057847.331    21057849.966   112487252.122 7  87490113.277 6
      2905.198        2259.581
  19315961.226    19315960.676    19315962.917   103291125.065 9  80337573.914 7
      -753.227        -585.844
 08 11 18  9  2 30.0000000  0 12G 1G 2G 4G12G14G30G31R 7R14R15R17R24
  22825522.563    22825522.8544   22825521.4004  119948928.826 5  93466714.71241
      2634.983        2053.026
  22205656.872    22205656.7834   22205656.6764  116691513.601 6  90928467.95143
       493.412         384.521
  23729122.202                                   124697395.571 4
     -2501.969
  21426352.445    21426352.9004   21426353.8734  112596246.636 7  87737348.89045
     -2368.285       -1845.394
  23316824.190                                   122530735.946 4
     -2847.371
  20067620.416    20067620.4284   20067621.4674  105456055.742 8  82173564.65446
       203.037         158.200
  22853046.661    22853046.6994   22853047.1024  120093578.898 7  93579417.98544
      2314.477        1803.490
  23171083.715    23171083.115    23171091.215   124036630.025 5  96472959.010 4
      -356.718        -277.440
  20202166.430    20202166.052    20202170.576   108105870.905 8  84082376.446 7
     -3058.754       -2379.017
  19802883.878    19802884.003    19802887.302   105820609.193 8  82304949.448 7
      1310.211        1019.051
  21049683.240    21049682.364    21049685.614   112443639.881 6  87456192.647 5
      2908.964        2262.557
  19318072.769    19318072.301    19318074.537   103302416.904 9  80346356.455 7
      -753.296        -585.896
 08 11 18  9  2 45.0000000  0 11G 1G 2G 4G12G30G31R 7R14R15R17R24
  22817991.024    22817990.6864   22817992.5694  119909352.611 5  93435876.04741
      2641.206        2058.033
  22204246.160    22204245.1234   22204245.5074  116684098.692 4  90922690.08543
       494.652         385.458
  23736259.279                                   124734905.185 5
     -2500.365
  21433104.857    21433104.7804   21433105.5554  112631727.575 7  87764996.37946
     -2363.470       -1841.662
  20067036.240    20067036.2954   20067037.4494  105452986.615 8  82171173.15645
       205.210         159.910
  22846432.173    22846432.3154   22846432.6394  120058819.094 7  93552332.44243
      2319.093        1807.108
  23172086.104    23172085.242    23172083.507   124041990.303 6  96477128.270 4
      -359.369        -279.530
  20210737.806    20210737.741    20210742.192   108151739.919 8  84118052.284 7
     -3058.211       -2378.606
  19799205.753    19799205.469    19799208.806   105800952.624 8  82289660.969 7
      1309.673        1018.628
  21041510.388    21041508.814    21041511.304   112399973.655 6  87422230.079 5
      2912.098        2265.030
  19320185.799    19320185.368    19320187.646   103313716.460 8  80355145.012 7
      -754.385        -586.724
 08 11 18  9  3  0.0000000  0 13G 1G 2G 4G 9G12G14G30G31R 7R14R15R17
                                R24
  22810442.572    22810443.0564   22810444.7234  119869684.950 5  93404966.29041
      2647.196        2062.745
  22202832.636    22202833.0174   22202833.6054  116676674.230 5  90916904.81941
       494.829         385.581
  23743391.813                                   124772384.079 5
     -2497.697
  24812558.162                                   130390884.855 4
     -4565.357
  21439842.249    21439842.4744   21439843.4114  112667134.013 7  87792585.78046
     -2357.839       -1837.277
  23333058.438                                   122616047.644 5
     -2841.257
  20066445.974    20066445.8864   20066447.1304  105449883.859 7  82168755.41946
       207.620         161.803
  22839804.081    22839804.2944   22839804.3744  120023988.255 6  93525191.51244
      2323.766        1810.724
  23173092.281    23173093.450    23173091.390   124047389.461 5  96481327.551 3
      -361.171        -280.820
  20219308.489    20219308.025    20219312.584   108197601.423 8  84153722.353 7
     -3057.568       -2378.075
  19795528.037    19795528.271    19795531.776   105781302.995 8  82274377.931 7
      1309.386        1018.425
  21033326.780    21033325.665    21033328.161   112356260.527 7  87388230.925 6
      2915.317        2267.482
  19322301.521    19322301.087    19322303.273   103325030.075 9  80363944.478 7
      -755.018        -587.236
 08 11 18  9  3 15.0000000  0 11G 1G 2G 9G14G30G31R14R15R17R23R24
  22802880.805    22802882.6684   22802880.1814  119829937.734 4  93373994.43941
      2652.292        2066.727
  22201421.173    22201420.7314   22201420.3654  116669252.218 6  90911121.40243
       494.314         385.171
  24825577.229                                   130459291.338 4
     -4557.092
  23341164.552                                   122658662.076 4
     -2838.094
  20065851.082    20065851.2894   20065852.4524  105446758.889 8  82166320.32846
       208.618         162.567
  22833164.535    22833164.8754   22833164.9504  119989097.972 7  93498004.30644
      2327.439        1813.576
  20227879.359    20227879.086    20227883.650   108243466.629 8  84189395.288 7
     -3058.235       -2378.608
  19791854.844    19791854.675    19791858.114   105761672.279 8  82259109.594 7
      1307.612        1017.033
  21025137.610    21025136.051    21025138.548   112312512.076 6  87354204.362 5
      2917.481        2269.139
  22392007.678    22392007.714    22392010.027   119782146.355 6  93163924.773
     -4212.130       -3276.127
  19324421.971    19324421.505    19324423.705   103336368.890 9  80372763.546 7
      -757.239        -588.967
 08 11 18  9  3 30.0000000  0 12G 1G 2G 4G 9G30G31R 7R14R15R17R23R24
  22795301.106    22795299.8964   22795304.0464  119790114.745 5  93342963.16941
      2656.125        2069.758
  22200009.835    22200009.6694   22200009.4444  116661837.043 6  90905343.33442
       493.373         384.458
  23757644.252                                   124847274.999 5
     -2496.239
  24838571.998    24838572.7384   24838572.6984  130527575.214 6 101709818.8394
     -4548.595       -3544.408
  20065253.104    20065253.1854   20065254.4324  105443615.955 8  82163871.32546
       209.454         163.217
  22826514.432    22826514.6204   22826515.5264  119954153.562 6  93470774.98844
      2330.686        1816.101
  23175140.284    23175139.950    23175139.461   124058326.508 6  96489855.567 5
      -369.432        -287.342
  20236451.771    20236451.607    20236456.139   108289339.564 8  84225074.242 7
     -3059.182       -2379.349
  19788185.370    19788185.356    19788188.806   105742064.848 8  82243859.380 7
      1305.704        1015.546
  21016941.133    21016940.417    21016942.946   112268733.196 5  87320153.873 3
      2918.923        2270.302
  22403811.232    22403809.771    22403812.270   119845283.719 6  93213031.620 5
     -4206.729       -3271.896
  19326547.992    19326547.558    19326549.726   103347737.497 9  80381605.787 7
      -759.548        -590.760
 08 11 18  9  3 45.0000000  0 12G 1G 2G 4G 9G30G31R 7R14R15R17R23R24
  22787710.784    22787707.6234   22787712.6544  119750216.779 5  93311878.91441
      2660.429        2073.189
  22198601.801    22198600.7944   22198600.8944  116654433.354 6  90899574.22643
       492.910         384.084
  23764767.719    23764767.2464   23764770.5374  124884706.529 5  97312764.13841
     -2495.020       -1944.119
  24851540.568    24851534.9174   24851542.3594  130595734.084 3 101762929.63241
     -4540.065       -3537.709
  20064652.680    20064652.5524   20064653.8274  105440459.825 7  82161411.95846
       210.492         164.042
  22819855.469    22819855.5164   22819855.8894  119919159.030 7  93443506.64944
      2334.422        1819.038
  23176179.521    23176179.240    23176177.438   124063889.464 6  96494182.295 5
      -373.051        -290.091
  20245026.420    20245026.381    20245030.903   108335224.710 8  84260762.647 7
     -3059.707       -2379.771
  19784521.223    19784521.303    19784524.871   105722485.451 8  82228630.944 7
      1303.998        1014.234
  21008741.676    21008739.811    21008742.617   112224928.935 7  87286084.125 6
      2920.864        2271.792
  22415597.125    22415596.251    22415599.061   119908336.299 5  93262072.455 4
     -4200.948       -3267.400
  19328680.485    19328680.051    19328682.125   103359140.456 9  80390474.763 7
      -761.559        -592.322
 08 11 18  9  4  0.0000000  0 12G 1G 2G 4G14G30G31R 7R14R15R17R23R24
  22780106.020    22780104.8724   22780107.9184  119710257.690 6  93280741.96843
      2665.972        2077.389
  22197195.126    22197194.7944   22197194.7654  116647045.058 5  90893817.07642
       492.033         383.450
  23771889.037    23771888.9174   23771891.1204  124922129.947 4  97341925.26541
     -2493.896       -1943.241
  23365439.820                                   122786203.531 5
     -2831.771
  20064050.174    20064050.2664   20064051.3424  105437294.315 8  82158945.34147
       210.962         164.390
  22813187.687    22813188.0094   22813187.7954  119884118.386 6  93416202.25044
      2336.984        1820.985
  23177230.420    23177229.835    23177229.573   124069515.894 6  96498558.361 5
      -377.525        -293.609
  20253604.316    20253604.025    20253608.650   108381125.778 8  84296463.499 7
     -3060.949       -2380.746
  19780863.400    19780863.611    19780866.990   105702938.890 8  82213428.064 7
      1301.726        1012.449
  21000536.814    21000535.559    21000538.480   112181103.220 8  87251997.554 7
      2922.103        2272.777
  22427370.852    22427368.152    22427372.214   119971307.145 4  93311049.486 5
     -4196.692       -3264.118
  19330820.025    19330819.414    19330821.631   103370581.349 8  80399373.265 6
      -764.469        -594.596
 08 11 18  9  4 15.0000000  0 12G 1G 2G 4G14G30G31R 7R14R15R17R23R24
  22772490.509    22772489.7674   22772492.9244  119670241.880 7  93249561.02742
      2669.472        2080.110
  22195794.495    22195793.4824   22195793.6144  116639679.814 6  90888077.69242
       489.942         381.763
  23779012.241    23779010.9034   23779013.0244  124959553.741 5  97371086.61241
     -2494.932       -1944.133
  23373520.981    23373521.1264   23373522.5474  122828671.930 5  95710674.68541
     -2830.678       -2205.710
  20063447.503    20063447.7564   20063448.8354  105434127.998 8  82156478.08947
       210.796         164.242
  22806512.441    22806512.2894   22806513.0314  119849040.809 6  93388869.04644
      2339.271        1822.803
  23178294.798    23178294.940    23178294.091   124075214.119 6  96502990.329 5
      -382.457        -297.444
  20262186.831    20262186.215    20262190.809   108427051.064 8  84332183.132 7
     -3062.828       -2382.215
  19777213.605    19777213.407    19777216.838   105683433.746 8  82198257.408 7
      1298.728        1010.114
  20992330.541    20992328.816    20992331.898   112137264.994 8  87217901.158 7
      2922.682        2273.184
  22439128.579    22439126.730    22439130.243   120034207.698 6  93359972.664 5
     -4191.271       -3259.870
  19332967.955    19332967.597    19332969.641   103382068.577 9  80408307.769 6
      -767.599        -597.016
 08 11 18  9  4 30.0000000  0 12G 1G 2G 4G14G30G31R 7R14R15R17R23R24
  22764865.873    22764864.9564   22764867.6974  119630171.736 6  93218337.55043
      2672.645        2082.588
  22194397.877    22194397.4384   22194397.3814  116632344.087 6  90882361.52343
       487.536         379.873
  23786132.835    23786134.1134   23786136.1784  124996973.800 4  97400256.28841
     -2495.727       -1944.666
  23381598.922    23381599.4084   23381600.1454  122871122.377 5  95743752.98942
     -2829.818       -2205.030
  20062845.805    20062845.9034   20062846.9544  105430965.106 8  82154013.48946
       210.265         163.839
  22799830.838    22799831.5974   22799831.6574  119813930.808 6  93361510.61044
      2341.356        1824.437
  23179373.587    23179372.866    23179372.007   124080987.689 6  96507480.637 5
      -388.022        -301.807
  20270774.074    20270773.818    20270778.421   108473004.776 7  84367924.917 7
     -3065.008       -2383.897
  19773571.870    19773571.793    19773575.363   105663974.768 8  82183122.634 7
      1295.237        1007.403
  20984122.187    20984120.856    20984123.511   112093418.907 7  87183798.649 7
      2922.795        2273.280
  22450873.077    22450872.594    22450874.475   120097037.650 6  93408840.399 4
     -4186.804       -3256.413
  19335125.697    19335125.235    19335127.518   103393606.346 9  80417281.595 6
      -771.349        -599.939
 08 11 18  9  4 45.0000000  0 12G 1G 2G 4G14G30G31R 7R14R15R17R23R24
  22757231.060    22757231.0834   22757233.3504  119590054.774 6  93187077.64844
      2675.381        2084.639
  22193008.655    22193008.4494   22193007.5394  116625043.131 7  90876672.49243
       485.358         378.125
  23793257.426    23793257.7434   23793260.2514  125034411.930 5  97429428.87441
     -2496.465       -1945.363
  23389675.157    23389675.3084   23389675.9944  122913560.769 5  95776821.77942
     -2829.449       -2204.732
  20062245.731    20062245.9204   20062246.9674  105427812.075 8  82151556.58446
       209.780         163.455
  22793144.761    22793145.3154   22793144.9614  119778794.827 7  93334131.90844
      2342.990        1825.718
  23180466.416    23180467.146    23180466.446   124086844.594 6  96512036.020 5
      -393.279        -305.865
  20279368.227    20279367.925    20279372.433   108518992.575 7  84403693.185 7
     -3067.276       -2385.669
  19769940.048    19769940.209    19769943.815   105644568.439 8  82168028.827 7
      1291.924        1004.818
  20975913.866    20975912.570    20975915.465   112049571.475 7  87149695.147 7
      2923.115        2273.520
  22462607.417    22462605.024    22462608.402   120159804.790 5  93457659.271 5
     -4182.326       -3252.889
  19337293.648    19337293.413    19337295.599   103405200.633 8  80426299.368 6
      -774.850        -602.662
 08 11 18  9  5  0.0000000  0 12G 1G 2G 4G14G30G31R 7R14R15R17R23R24
  22749589.081    22749588.3404   22749591.6774  119549892.217 6  93155782.13143
      2678.473        2087.103
  22191626.482    22191625.9174   22191625.6744  116617778.321 7  90871011.60644
       482.180         375.691
  23800384.170    23800383.4994   23800385.9234  125071861.082 5  97458609.00741
     -2497.741       -1946.334
  23397748.804    23397748.1494   23397749.0244  122955987.673 5  95809881.71142
     -2828.945       -2204.364
  20061647.786    20061648.0114   20061648.9794  105424669.970 8  82149108.17746
       208.598         162.544
  22786454.446    22786454.3204   22786454.9754  119743634.224 6  93306734.03144
      2344.330        1826.741
  23181577.304    23181577.154    23181576.568   124092785.203 6  96516656.515 5
      -399.507        -310.728
  20287968.817    20287968.325    20287972.794   108565015.461 7  84439488.746 6
     -3070.251       -2387.973
  19766319.024    19766318.953    19766322.255   105625216.621 8  82152977.417 7
      1287.549        1001.416
  20967705.177    20967704.122    20967707.066   112005723.993 7  87115591.532 6
      2922.657        2273.159
  22474329.295    22474327.700    22474330.561   120222509.680 6  93506429.735 5
     -4179.172       -3250.484
  19339472.797    19339472.354    19339474.487   103416852.225 8  80435361.717 7
      -779.236        -606.070
 08 11 18  9  5 15.0000000  0 12G 1G 2G 4G14G30G31R 7R14R15R17R23R24
  22741937.992    22741936.6264   22741940.0104  119509685.511 4  93124452.21343
      2681.022        2089.119
  22190251.003    22190250.5354   22190250.5474  116610552.004 7  90865380.67544
       479.837         373.902
  23807511.758    23807512.8294   23807515.0494  125109323.226 5  97487800.27742
     -2498.339       -1946.737
  23405818.435    23405820.6254   23405822.0644  122998405.301 5  95842934.39442
     -2829.089       -2204.444
  20061052.393    20061052.6774   20061053.7644  105421541.392 8  82146670.32047
       207.525         161.716
  22779759.146    22779759.4254   22779759.7274  119708451.812 6  93279319.17644
      2345.818        1827.900
  23182703.008    23182703.314    23182701.552   124098812.155 6  96521344.099 5
      -405.288        -315.227
  20296575.666    20296575.787    20296580.376   108611075.705 8  84475313.360 7
     -3072.546       -2389.761
  19762708.318    19762708.217    19762711.646   105605922.094 8  82137970.553 7
      1283.817         998.525
  20959496.718    20959496.158    20959498.921   111961879.196 7  87081490.033 5
      2922.466        2273.026
  22486040.842    22486038.660    22486042.160   120285154.604 6  93555153.537 5
     -4175.081       -3247.281
  19341663.017    19341662.455    19341664.620   103428563.716 8  80444470.642 7
      -783.331        -609.241
 08 11 18  9  5 30.0000000  0 13G 1G 2G 4G 9G14G30G31R 7R14R15R17R23
                                R24
  22734280.281    22734279.5174   22734282.3324  119469443.725 6  93093094.82143
      2683.438        2090.998
  22188884.955    22188884.2004   22188883.9574  116603370.822 7  90859784.93744
       476.762         371.491
  23814645.768    23814645.9384   23814647.4904  125146804.719 5  97517006.62942
     -2500.120       -1948.165
  24941745.389                                   131069747.631 4
     -4492.155
  23413892.082    23413891.2474   23413892.5814  123040819.435 6  95875984.34741
     -2828.235       -2203.800
  20060460.906    20060461.1424   20060462.1574  105418432.941 8  82144248.14547
       206.108         160.593
  22773061.593    22773061.9934   22773062.2494  119673254.446 6  93251892.65144
      2346.608        1828.525
  23183846.542    23183846.432    23183845.995   124104931.504 6  96526103.599 5
      -411.660        -320.183
  20305191.781    20305191.374    20305195.943   108657179.596 8  84511171.928 7
     -3075.547       -2392.104
  19759109.520    19759109.366    19759112.753   105586691.133 8  82123013.138 7
      1279.468         995.139
  20951292.015    20951290.502    20951292.699   111918044.291 8  87047396.220 7
      2921.455        2272.232
  22497740.835    22497739.589    22497741.957   120347745.782 6  93603835.541 4
     -4171.442       -3244.441
  19343865.447    19343865.065    19343867.205   103440341.666 9  80453631.283 7
      -787.883        -612.801
 08 11 18  9  5 45.0000000  0 13G 1G 2G 4G 9G14G30G31R 7R14R15R17R23
                                R24
  22726615.720    22726614.5554   22726617.8424  119429165.446 6  93061709.16143
      2686.158        2093.111
  22187526.718    22187526.3014   22187526.2284  116596234.740 7  90854224.35244
       473.832         369.205
  23821780.876    23821780.8864   23821783.7644  125184305.152 5  97546227.74641
     -2501.403       -1949.142
  24954556.605                                   131137067.493 4
     -4485.451
  23421962.197    23421960.8014   23421963.9174  123083229.968 6  95909031.48442
     -2827.473       -2203.224
  20059873.183    20059873.4234   20059874.5284  105415344.516 8  82141841.57647
       204.754         159.551
  22766361.025    22766360.8944   22766361.2174  119638042.110 6  93224454.46044
      2347.576        1829.276
  23185006.715    23185006.184    23185005.694   124111143.103 6  96530934.839 5
      -417.551        -324.766
  20313815.600    20313815.133    20313819.653   108703326.787 8  84547064.167 7
     -3078.315       -2394.222
  19755523.156    19755522.753    19755526.123   105567524.522 8  82108105.770 7
      1275.141         991.787
  20943087.632    20943086.309    20943089.027   111874218.991 8  87013309.888 7
      2920.875        2271.793
  22509430.067    22509429.875    22509433.401   120410282.616 6  93652475.290 5
     -4167.757       -3241.589
  19346080.218    19346079.823    19346081.966   103452185.351 9  80462843.036 7
      -792.216        -616.159
 08 11 18  9  6  0.0000000  0 11G 1G 2G 4G14G30R 7R14R15R17R23R24
  22718944.448    22718942.9784   22718946.3164  119388850.959 6  93030295.30144
      2688.302        2094.802
  22186177.341    22186176.9064   22186176.7474  116589144.031 7  90848699.12044
       470.759         366.840
  23828921.067    23828921.1094   23828922.7464  125221824.213 5  97575463.33742
     -2502.422       -1949.968
  23430031.579    23430031.3914   23430033.2704  123125636.568 5  95942075.54742
     -2827.191       -2202.988
  20059289.327    20059289.5854   20059290.6334  105412276.126 8  82139450.61847
       203.516         158.590
  23186184.008    23186183.908    23186183.017   124117447.331 6  96535838.119 5
      -423.806        -329.617
  20322447.259    20322446.926    20322451.377   108749516.959 8  84582989.839 7
     -3081.087       -2396.400
  19751948.291    19751947.947    19751951.319   105548422.349 8  82093248.519 7
      1270.906         988.491
  20934885.125    20934883.840    20934886.698   111830403.744 7  86979231.374 7
      2920.371        2271.410
  22521110.861    22521110.331    22521112.505   120472764.523 6  93701072.317 4
     -4164.142       -3238.779
  19348307.595    19348307.045    19348309.221   103464094.897 9  80472106.019 7
      -796.547        -619.534
 08 11 18  9  6 15.0000000  0 11G 1G 4G14G24G30R 7R14R15R17R23R24
  22711266.182    22711265.2564   22711268.2984  119348503.844 6  92998856.00043
      2690.539        2096.523
  23836064.893    23836063.5894   23836066.9794  125259364.728 5  97604715.67342
     -2503.657       -1950.869
  23438101.920    23438101.0024   23438102.8134  123168042.058 5  95975118.77442
     -2827.592       -2203.336
  24603793.585                                   129293801.881 4
      3507.875
  20058709.854    20058710.1324   20058711.2364  105409231.178 8  82137077.92947
       201.880         157.316
  23187379.891    23187379.516    23187379.444   124123847.439 6  96540815.991 5
      -430.401        -334.747
  20331087.322    20331087.292    20331091.849   108795753.174 8  84618951.325 7
     -3084.321       -2398.907
  19748385.756    19748385.956    19748389.237   105529388.081 8  82078444.086 7
      1266.234         984.854
  20926685.761    20926684.217    20926686.995   111786602.308 7  86945163.606 7
      2919.311        2270.579
  22532782.033    22532781.405    22532784.275   120535194.607 6  93749629.029 5
     -4160.687       -3236.066
  19350547.670    19350547.038    19350549.247   103476073.437 9  80481422.660 7
      -801.296        -623.218
 08 11 18  9  6 30.0000000  0 11G 1G 4G14G24G30R 7R14R15R17R23R24
  22703584.907    22703583.9604   22703586.7634  119308136.908 6  92967401.25344
      2691.279        2097.116
  23843215.636    23843216.1464   23843217.5264  125296939.281 5  97633994.54241
     -2506.342       -1952.984
  23446173.342    23446172.5154   23446174.6674  123210458.803 5  96008170.75742
     -2828.633       -2204.125
  24593775.924                                   129241149.607 4
      3512.042
  20058137.499    20058137.5664   20058138.6864  105406222.359 8  82134733.39447
       198.911         154.992
  23188595.477    23188595.860    23188594.899   124130356.322 6  96545878.454 5
      -438.103        -340.750
  20339738.746    20339738.559    20339743.094   108842048.146 8  84654958.507 7
     -3088.763       -2402.361
  19744839.512    19744839.259    19744842.633   105510435.533 8  82063703.211 7
      1260.282         980.225
  20918490.132    20918489.221    20918492.250   111742827.657 7  86911116.661 7
      2916.901        2268.697
  22544446.214    22544444.196    22544447.063   120597585.543 6  93798155.293 4
     -4158.543       -3234.408
  19352802.931    19352802.409    19352804.571   103488133.700 9  80490802.864 7
      -807.225        -627.837
 08 11 18  9  6 45.0000000  0 11G 1G 4G14G24G30R 7R14R15R17R23R24
  22695899.607    22695898.5564   22695901.5544  119267750.063 6  92935931.00544
      2692.994        2098.444
  23850371.983    23850371.8224   23850373.8324  125334547.332 5  97663299.48342
     -2508.531       -1954.703
  23454246.878    23454246.0164   23454247.0364  123252886.098 5  96041230.96042
     -2829.103       -2204.516
  24583741.455                                   129188425.147 4
      3517.517
  20057571.603    20057571.7944   20057572.9154  105403249.464 8  82132416.84846
       196.998         153.492
  23189832.723    23189831.981    23189831.008   124136973.675 6  96551025.265 5
      -444.976        -346.084
  20348401.207    20348400.664    20348405.235   108888400.895 8  84691010.632 7
     -3092.133       -2404.994
  19741307.764    19741307.635    19741311.166   105491564.045 8  82049025.382 7
      1255.252         976.310
  20910300.989    20910299.780    20910302.654   111699079.823 8  86877090.570 7
      2915.461        2267.578
  22556101.357    22556100.422    22556103.245   120659936.463 6  93846650.454 5
     -4155.511       -3232.056
  19355073.508    19355072.895    19355074.974   103500274.859 9  80500245.988 7
      -812.181        -631.699
 08 11 18  9  7  0.0000000  0 11G 1G 4G14G24G30R 7R14R15R17R23R24
  22688209.191    22688208.1154   22688210.8224  119227335.777 6  92904439.37944
      2695.087        2100.077
  23857533.557    23857532.4914   23857535.0474  125372180.750 5  97692624.20442
     -2509.606       -1955.551
  23462320.568    23462320.3694   23462322.6114  123295315.770 5  96074293.03142
     -2828.749       -2204.239
  24573692.928                                   129135621.071 4
      3522.620
  20057011.379    20057011.5404   20057012.6314  105400304.887 8  82130122.36847
       195.228         152.128
  23191087.103    23191086.490    23191085.984   124143690.955 6  96556249.814 5
      -451.324        -351.023
  20357072.468    20357072.250    20357076.788   108934803.424 8  84727101.468 7
     -3095.244       -2407.417
  19737789.966    19737789.984    19737793.393   105472766.582 8  82034405.130 7
      1250.550         972.652
  20902114.850    20902113.630    20902116.184   111655351.187 8  86843079.420 7
      2914.459        2266.791
  22567748.308    22567746.946    22567749.448   120722239.258 6  93895108.170 4
     -4152.002       -3229.337
  19357357.423    19357356.961    19357359.089   103512489.039 9  80509745.902 7
      -816.792        -635.285
 08 11 18  9  7 15.0000000  0 11G 1G 4G14G24G30R 7R14R15R17R23R24
  22680512.175    22680511.7894   22680514.5374  119186891.617 6  92872924.46044
      2696.867        2101.455
  23864699.212    23864698.2684   23864700.7704  125409836.712 5  97721966.50742
     -2511.303       -1956.876
  23470394.524    23470394.7024   23470396.3144  123337744.929 5  96107354.69442
     -2828.712       -2204.205
  24563629.758                                   129082735.209 4
      3528.396
  20056455.819    20056456.1164   20056457.2014  105397386.231 8  82127848.08847
       193.578         150.842
  23192360.182    23192359.954    23192358.421   124150506.753 6  96561550.984 5
      -457.793        -356.060
  20365752.978    20365752.481    20365757.008   108981253.193 8  84763229.053 7
     -3098.375       -2409.861
  19734285.499    19734285.668    19734288.990   105454040.477 8  82019840.376 7
      1245.842         968.986
  20893932.237    20893930.793    20893933.560   111611639.469 8  86809081.426 7
      2913.334        2265.921
  22579385.785    22579384.219    22579387.387   120784490.743 6  93943525.973 4
     -4148.537       -3226.635
  19359654.963    19359654.280    19359656.390   103524773.564 9  80519300.529 7
      -821.503        -638.941
 08 11 18  9  7 30.0000000  0 11G 1G 4G14G24G30R 7R14R15R17R23R24
  22672810.403    22672809.5984   22672812.5394  119146417.364 7  92841386.10744
      2698.973        2103.103
  23871869.008    23871868.4234   23871871.0454  125447514.640 5  97751325.92942
     -2513.002       -1958.171
  23478467.746    23478468.2574   23478470.3554  123380173.029 5  96140415.51842
     -2829.242       -2204.566
  24553549.621                                   129029767.523 4
      3533.834
  20055905.457    20055905.6094   20055906.6964  105394492.958 8  82125593.58547
       191.852         149.501
  23193652.168    23193650.943    23193650.526   124157419.605 6  96566927.647 5
      -464.434        -361.231
  20374441.672    20374441.343    20374445.888   109027749.045 8  84799392.479 7
     -3101.402       -2412.201
  19730795.304    19730794.873    19730798.186   105435386.300 8  82005331.568 7
      1241.106         965.316
  20885752.612    20885751.055    20885753.897   111567944.440 8  86775096.414 7
      2912.228        2265.069
  22591013.666    22591012.124    22591014.430   120846690.398 6  93991903.471 4
     -4145.202       -3224.024
  19361965.047    19361964.601    19361966.791   103537127.808 9  80528909.384 7
      -826.145        -642.554
 08 11 18  9  7 45.0000000  0 11G 1G 4G14G24G30R 7R14R15R17R23R24
  22665102.660    22665101.3134   22665104.3444  119105911.107 6  92809822.80844
      2700.791        2104.493
  23879041.944    23879042.5004   23879043.4074  125485212.151 5  97780700.58042
     -2514.348       -1959.239
  23486541.584    23486541.3564   23486543.0394  123422597.621 5  96173473.63142
     -2829.271       -2204.624
  24543452.830                                   128976716.348 4
      3538.877
  20055359.269    20055359.5104   20055360.5414  105391623.188 8  82123357.39847
       189.798         147.898
  23194960.266    23194960.164    23194959.436   124164427.867 6  96572378.523 5
      -470.899        -366.249
  20383138.599    20383138.430    20383143.064   109074288.808 8  84835590.058 7
     -3104.808       -2414.849
  19727317.175    19727316.892    19727320.374   105416801.275 8  81990876.543 7
      1235.912         961.260
  20877575.217    20877573.942    20877576.855   111524264.291 8  86741122.976 7
      2910.801        2263.954
  22602631.707    22602629.376    22602632.686   120908835.545 6  94040238.563 4
     -4141.780       -3221.356
  19364287.922    19364287.460    19364289.751   103549549.316 9  80538570.555 7
      -831.021        -646.351
 08 11 18  9  8  0.0000000  0 11G 1G 4G14G24G30R 7R14R15R17R23R24
  22657388.850    22657389.0204   22657391.3304  119065379.115 6  92778239.44944
      2701.997        2105.461
  23886220.045    23886220.4834   23886223.4794  125522934.990 5  97810094.99141
     -2516.509       -1960.916
  23494613.846    23494615.3724   23494616.4284  123465024.129 5  96206533.21242
     -2829.091       -2204.478
  24533344.169                                   128923587.991 4
      3543.756
  20054818.902    20054819.0314   20054820.0894  105388782.992 8  82121144.25747
       187.554         146.146
  23196289.354    23196288.935    23196288.272   124171537.585 6  96577908.282 5
      -478.206        -371.942
  20391845.086    20391844.726    20391849.295   109120878.348 8  84871826.354 7
     -3108.476       -2417.700
  19723853.062    19723853.160    19723856.657   105398292.481 8  81976480.811 7
      1230.525         957.077
  20869401.952    20869400.834    20869403.555   111480605.429 8  86707166.094 7
      2909.064        2262.612
  22614239.679    22614237.652    22614241.010   120970932.214 6  94088535.957 4
     -4139.167       -3219.355
  19366624.797    19366624.118    19366626.260   103562044.437 9  80548288.984 7
      -836.326        -650.475
 08 11 18  9  8 15.0000000  0 11G 1G 4G14G24G30R 7R14R15R17R23R24
  22649672.836    22649671.6834   22649674.6394  119024826.331 6  92746639.89144
      2703.488        2106.623
  23893403.395    23893404.9314   23893407.1634  125560687.602 5  97839512.58141
     -2519.174       -1962.967
  23502690.576    23502689.4924   23502691.4984  123507457.271 5  96239597.98742
     -2830.100       -2205.299
  24523220.270                                   128870387.685 5
      3548.345
  20054284.604    20054285.0904   20054286.1674  105385977.215 8  82118957.93347
       185.074         144.223
  23197637.379    23197637.266    23197636.380   124178753.552 6  96583520.682 5
      -485.460        -377.555
  20400561.771    20400561.371    20400565.929   109167522.216 8  84908104.903 7
     -3112.301       -2420.670
  19720404.991    19720404.790    19720408.407   105379865.184 8  81962148.464 7
      1224.971         952.771
  20861234.082    20861232.846    20861235.470   111436972.952 7  86673229.741 7
      2907.092        2261.075
  22625840.834    22625837.814    22625840.001   121032984.793 6  94136799.051 4
     -4136.079       -3216.910
  19368975.961    19368975.353    19368977.621   103574617.881 8  80558068.325 7
      -841.668        -654.623
 08 11 18  9  8 30.0000000  0 11G 1G 4G14G24G30R 7R14R15R17R23R24
  22641953.604    22641952.5814   22641955.6874  118984262.562 6  92715031.75144
      2704.366        2107.276
  23900596.403    23900596.0734   23900596.9614  125598479.268 5  97868960.61741
     -2520.865       -1964.269
  23510767.202    23510767.4704   23510769.6194  123549906.151 6  96272675.01142
     -2830.920       -2205.921
  24513085.593                                   128817125.352 5
      3552.776
  20053759.615    20053759.5784   20053760.6984  105383215.555 8  82116805.98847
       182.411         142.132
  23199006.196    23199006.238    23199005.214   124186085.604 6  96589223.384 5
      -493.052        -383.499
  20409290.158    20409289.812    20409294.221   109214230.055 8  84944433.209 7
     -3116.302       -2423.788
  19716973.910    19716973.462    19716976.997   105361529.230 8  81947887.165 7
      1218.983         948.092
  20853072.934    20853071.646    20853074.315   111393377.089 7  86639321.857 7
      2904.919        2259.374
  22637434.274    22637431.692    22637434.853   121095002.829 6  94185035.287 4
     -4133.636       -3215.053
  19371343.778    19371343.141    19371345.186   103587278.884 9  80567915.770 7
      -847.260        -658.985
 08 11 18  9  8 45.0000000  0 11G 1G 4G14G24G30R 7R14R15R17R23R24
  22634232.930    22634231.5844   22634234.9794  118943690.502 6  92683417.16044
      2704.771        2107.608
  23907795.816    23907795.8994   23907797.6674  125636312.456 5  97898441.01341
     -2524.224       -1966.912
  23518849.856    23518848.9714   23518850.6114  123592373.080 6  96305766.11942
     -2831.830       -2206.632
  24502940.778                                   128763803.958 5
      3555.738
  20053242.884    20053243.0314   20053244.0074  105380500.691 8  82114690.50847
       179.096         139.559
  23200398.030    23200397.750    23200398.402   124193536.251 6  96595018.342 5
      -501.160        -389.790
  20418031.139    20418030.679    20418035.162   109261004.047 8  84980812.968 7
     -3120.731       -2427.224
  19713559.671    19713559.688    19713563.292   105343287.385 8  81933699.060 7
      1212.649         943.180
  20844918.839    20844917.552    20844920.335   111349820.494 8  86605444.523 7
      2902.078        2257.174
  22649020.289    22649019.011    22649021.436   121156988.330 6  94233246.227 4
     -4131.689       -3213.539
  19373727.973    19373727.520    19373729.879   103600029.807 9  80577833.152 7
      -853.383        -663.742
 08 11 18  9  9  0.0000000  0 11G 1G 4G14G24G30R 7R14R15R17R23R24
  22626510.867    22626510.1474   22626513.5184  118903112.681 6  92651798.07244
      2705.248        2107.985
  23915003.347    23915003.2574   23915006.7444  125674189.099 5  97927955.27141
     -2526.768       -1968.968
  23526934.314    23526933.9394   23526934.7824  123634859.976 5  96338872.79042
     -2832.876       -2207.406
  24492780.995                                   128710426.052 4
      3560.126
  20052735.572    20052735.6704   20052736.7734  105377834.831 8  82112613.21247
       175.968         137.118
  23201811.749    23201812.126    23201812.179   124201107.514 6  96600907.094 5
      -508.916        -395.830
  20426784.593    20426784.236    20426788.831   109307845.923 8  85017245.523 7
     -3125.209       -2430.718
  19710164.445    19710164.357    19710167.771   105325142.997 8  81919586.754 7
      1206.323         938.250
  20836773.117    20836771.558    20836774.243   111306305.914 8  86571599.854 7
      2899.429        2255.110
  22660602.858    22660601.640    22660604.307   121218943.555 6  94281433.595 4
     -4129.420       -3211.792
  19376129.953    19376129.318    19376131.526   103612872.797 9  80587822.143 7
      -859.397        -668.417
 08 11 18  9  9 15.0000000  0 11G 1G 4G14G24G30R 7R14R15R17R23R24
  22618788.617    22618787.5954   22618790.0054  118862528.175 7  92620173.77944
      2705.315        2108.034
  23922219.636    23922219.1884   23922220.9224  125712107.627 5  97957502.16441
     -2529.607       -1971.118
  23535023.227    23535022.8394   23535023.6114  123677365.204 5  96371993.70942
     -2834.515       -2208.740
  24482610.940                                   128656991.150 5
      3563.652
  20052237.561    20052237.5394   20052238.5704  105375216.892 8  82110573.25847
       172.379         134.322
  23203248.046    23203249.044    23203248.661   124208798.133 6  96606888.690 5
      -517.185        -402.280
  20435550.214    20435550.261    20435554.844   109354754.834 8  85053730.227 7
     -3130.029       -2434.464
  19706786.569    19706786.722    19706790.341   105307094.413 8  81905548.964 7
      1199.378         932.849
  20828634.851    20828633.375    20828636.197   111262832.317 8  86537787.074 7
      2896.385        2252.742
  22672178.232    22672176.723    22672180.103   121280866.792 6  94329596.100 4
     -4127.677       -3210.417
  19378548.584    19378547.933    19378550.197   103625806.540 9  80597881.721 7
      -865.821        -673.419
 08 11 18  9  9 30.0000000  0 11G 1G 4G14G24G30R 7R14R15R17R23R24
  22611064.191    22611063.8924   22611066.4654  118821940.667 6  92588547.15744
      2705.345        2108.047
  23929444.079    23929444.0444   23929445.4614  125750071.614 5  97987084.45941
     -2532.506       -1973.345
  23543115.736    23543113.9944   23543115.0044  123719892.107 5  96405131.52942
     -2836.432       -2210.198
  24472433.710                                   128603503.189 5
      3567.024
  20051749.067    20051749.2144   20051750.1744  105372650.610 8  82108573.55546
       168.971         131.652
  23204710.403    23204709.487    23204708.285   124216612.622 6  96612966.621 5
      -525.664        -408.850
  20444329.544    20444329.406    20444333.967   109401733.762 8  85090269.381 7
     -3134.623       -2438.038
  19703428.034    19703428.003    19703431.587   105289146.367 8  81891589.372 7
      1192.727         927.677
  20820505.120    20820503.635    20820506.206   111219403.860 8  86504009.400 7
      2893.325        2250.361
  22683748.141    22683747.569    22683750.130   121342761.106 6  94377736.090 5
     -4126.039       -3209.141
  19380984.895    19380984.288    19380986.504   103638834.785 9  80608014.795 7
      -872.123        -678.321
 08 11 18  9  9 45.0000000  0 11G 1G 4G14G24G30R 7R14R15R17R23R24
  22603340.776    22603339.9784   22603343.0404  118781352.742 7  92556920.21344
      2705.309        2108.047
  23936675.871    23936676.2834   23936678.7094  125788083.018 5  98016703.72741
     -2535.986       -1976.075
  23551213.616    23551212.1914   23551213.2414  123762442.752 6  96438287.86242
     -2838.797       -2212.026
  24462247.601                                   128549964.809 5
      3570.781
  20051270.927    20051271.1054   20051272.2154  105370138.567 8  82106616.11747
       165.290         128.797
  23206191.632    23206192.215    23206191.547   124224552.689 6  96619142.215 5
      -533.910        -415.279
  20453122.369    20453122.091    20453126.742   109448785.171 8  85126864.909 7
     -3139.527       -2441.851
  19700088.565    19700088.448    19700091.919   105271300.724 8  81877709.424 7
      1185.890         922.353
  20812383.969    20812382.457    20812385.205   111176022.995 8  86470268.743 7
      2889.994        2247.768
  22695314.008    22695312.657    22695315.805   121404629.200 6  94425855.713 4
     -4123.875       -3207.462
  19383439.228    19383438.719    19383440.789   103651959.400 9  80618222.828 7
      -878.563        -683.323
 08 11 18  9 10  0.0000000  0 11G 1G 4G14G24G30R 7R14R15R17R23R24
  22595617.247    22595617.0034   22595619.5734  118740766.217 6  92525294.34544
      2705.233        2107.992
  23943919.744    23943918.7064   23943921.2424  125826143.088 5  98046360.88241
     -2539.571       -1978.881
  23559314.997    23559313.8614   23559315.8084  123805018.350 5  96471463.64642
     -2839.651       -2212.691
  24452049.368    24452050.7994   24452051.8834  128496377.930 5 100127072.02541
      3573.601        2784.622
  20050803.680    20050803.8174   20050804.8554  105367682.524 8  82104702.31447
       161.567         125.885
  23207700.966    23207699.523    23207698.487   124232619.907 6  96625416.709 5
      -542.284        -421.773
  20461928.564    20461928.520    20461933.100   109495910.068 8  85163517.592 7
     -3144.410       -2445.645
  19696768.767    19696768.675    19696772.248   105253560.392 8  81863911.384 7
      1178.910         916.933
  20804271.856    20804270.513    20804273.623   111132691.685 8  86436566.630 7
      2886.859        2245.333
  22706875.649    22706874.025    22706876.537   121466471.804 6  94473955.497 4
     -4122.141       -3206.105
  19385911.776    19385911.382    19385913.607   103665181.989 9  80628507.061 7
      -885.047        -688.370
 08 11 18  9 10 15.0000000  0 11G 1G 4G14G24G30R 7R14R15R17R23R24
  22587894.290    22587893.5604   22587896.7354  118700180.132 7  92493668.82444
      2705.282        2108.026
  23951170.209    23951171.6934   23951172.6054  125864250.375 5  98076054.86441
     -2542.338       -1980.994
  23567420.595    23567420.8584   23567421.7004  123847617.489 5  96504657.80742
     -2840.976       -2213.740
  24441843.659    24441843.1004   24441845.9804  128442741.896 5 100085277.70741
      3576.844        2787.190
  20050346.616    20050346.7824   20050347.8554  105365281.330 9  82102831.25147
       157.859         123.014
  23209229.787    23209229.731    23209229.819   124240813.266 6  96631789.335 5
      -550.789        -428.380
  20470748.397    20470748.457    20470753.007   109543106.878 8  85200226.207 7
     -3149.162       -2449.330
  19693468.534    19693468.248    19693471.640   105235923.919 8  81850194.126 7
      1171.903         911.483
  20796169.318    20796168.060    20796170.594   111089409.120 8  86402902.436 7
      2883.442        2242.678
  22718430.346    22718429.450    22718432.561   121528287.610 6  94522034.426 5
     -4120.384       -3204.733
  19388402.502    19388402.183    19388404.355   103678501.027 9  80638866.308 7
      -891.539        -693.417
 08 11 18  9 10 30.0000000  0 11G 1G 4G14G24G30R 7R14R15R17R23R24
  22580172.137    22580170.6684   22580174.0614  118659598.190 6  92462046.53344
      2704.561        2107.451
  23958432.230    23958431.2144   23958434.5704  125902408.304 5  98105788.29441
     -2546.205       -1984.081
  23575532.148    23575531.5814   23575533.1604  123890243.338 5  96537872.72342
     -2842.695       -2215.010
  24431628.375    24431626.4994   24431630.7564  128389060.641 5 100043448.15641
      3579.524        2789.209
  20049900.680    20049901.0534   20049902.1364  105362938.436 9  82101005.61647
       153.584         119.674
  23210785.363    23210784.517    23210784.072   124249135.934 6  96638262.527 5
      -559.842        -435.415
  20479582.644    20479582.509    20479586.977   109590379.228 8  85236993.577 7
     -3154.633       -2453.590
  19690188.070    19690187.979    19690191.269   105218394.982 8  81836560.507 7
      1164.267         905.548
  20788076.745    20788075.274    20788077.756   111046179.120 8  86369279.120 7
      2879.501        2239.618
  22729982.776    22729981.225    22729983.575   121590079.749 6  94570094.966 4
     -4119.353       -3203.940
  19390912.185    19390911.567    19390913.835   103691920.000 9  80649303.287 7
      -898.634        -698.925
 08 11 18  9 10 45.0000000  0 11G 1G14G24G30G31R 7R14R15R17R23R24
  22272658.327    22272657.2814   22272659.9574  117043601.295 7  91202828.17844
      2704.020        2107.028
  23283857.255    23283857.0804   23283859.1604  122357481.775 5  95343513.01642
     -2844.984       -2216.824
  24121611.142    24121609.3744   24121617.5424  126759914.286 5  98773983.51941
      3582.330        2791.370
  19749674.341    19749674.4294   19749675.5524  103785237.280 8  80871628.09647
       149.421         116.426
  22332573.612    22332573.9404   22332574.9084  117358469.117 6  91448170.28244
      2335.428        1819.809
  22912572.022    22912572.073    22912571.016   122652779.772 6  95396652.172 5
      -568.621        -442.259
  20188639.689    20188639.205    20188643.791   108033483.360 8  84026074.563 7
     -3159.875       -2457.676
  19387136.021    19387135.843    19387139.354   103598976.787 8  80577013.021 7
      1156.743         899.682
  20480202.026    20480200.185    20480202.484   109401565.002 8  85090134.815 7
      2875.778        2236.715
  22441738.746    22441736.875    22441740.419   120048168.167 6  93370830.389 5
     -4118.135       -3203.014
  19093648.332    19093648.028    19093650.083   102102318.163 9  79412946.305 7
      -905.527        -704.295
 08 11 18  9 11  0.0000000  0 11G 1G14G24G30G31R 7R14R15R17R23R24
  22264938.927    22264937.8084   22264940.3594  117003035.401 6  91171218.37744
      2703.729        2106.833
  23291980.435    23291979.1564   23291981.5764  122400167.220 5  95376774.39042
     -2847.071       -2218.499
  24111379.727    24111379.9584   24111384.0624  126706150.844 5  98732089.95741
      3585.351        2793.733
  19749252.178    19749252.2894   19749253.3824  103783018.597 8  80869899.25147
       145.474         113.368
  22325908.735    22325909.1294   22325909.2834  117323445.970 7  91420879.52444
      2333.448        1818.278
  22914176.068    22914176.982    22914176.070   122661368.838 6  95403332.572 5
      -577.555        -449.229
  20197503.220    20197502.588    20197507.125   108080912.619 8  84062963.971 7
     -3164.914       -2461.593
  19383897.841    19383897.589    19383900.935   103581671.967 8  80563553.715 7
      1149.500         894.059
  20472129.585    20472128.313    20472131.327   109358448.198 8  85056599.541 7
      2872.099        2233.859
  22453282.692    22453280.760    22453283.878   120109919.552 6  93418859.202 5
     -4116.394       -3201.611
  19096196.516    19096196.106    19096198.370   102115943.884 9  79423544.091 7
      -912.182        -709.470
 08 11 18  9 11 15.0000000  0 11G 1G14G24G30G31R 7R14R15R17R23R24
  22257222.444    22257220.9064   22257223.5974  116962483.421 7  91139619.41344
      2702.763        2106.048
  23300108.973    23300109.6204   23300110.1224  122442887.329 5  95410062.76442
     -2849.273       -2220.243
  24101143.092    24101142.9004   24101145.0334  126652352.444 5  98690169.20441
      3587.404        2795.437
  19748842.790    19748842.9184   19748844.0104  103780867.625 8  80868223.16747
       140.942         109.826
  22319251.198    22319251.9044   22319252.2174  117288460.814 6  91393618.35844
      2330.849        1816.234
  22915808.440    22915807.086    22915807.065   122670097.267 6  95410121.331 5
      -586.483        -456.132
  20206381.894    20206381.523    20206386.120   108128425.785 8  84099918.647 7
     -3170.528       -2465.956
  19380681.422    19380681.276    19380684.827   103564485.483 8  80550186.448 7
      1141.681         887.984
  20464069.600    20464068.614    20464071.669   109315394.097 8  85023113.040 7
      2868.074        2230.721
  22464822.480    22464821.759    22464823.932   120171655.410 6  93466875.970 4
     -4115.590       -3201.009
  19098765.040    19098764.483    19098766.755   102129678.338 9  79434226.440 7
      -919.469        -715.148
 08 11 18  9 11 30.0000000  0 11G 1G14G24G30G31R 7R14R15R17R23R24
  22249507.087    22249506.3314   22249508.9494  116921943.387 6  91108029.75444
      2701.957        2105.436
  23308245.760    23308244.5894   23308245.4134  122485639.587 6  95443376.20141
     -2851.198       -2221.715
  24090897.965    24090898.6264   24090901.3214  126598517.343 5  98648219.84341
      3589.983        2797.386
  19748446.044    19748446.0914   19748447.2284  103778782.215 8  80866598.17447
       136.587         106.436
  22312600.822    22312601.3204   22312601.4294  117253511.706 7  91366385.29744
      2328.458        1814.407
  22917462.103    22917462.562    22917462.204   122678962.003 6  95417016.146 5
      -595.644        -463.283
  20215276.300    20215275.690    20215280.308   108176020.417 8  84136936.682 7
     -3175.905       -2470.145
  19377486.897    19377486.766    19377490.416   103547415.073 8  80536909.466 7
      1133.955         881.964
  20456021.291    20456020.021    20456023.026   109272400.753 8  84989673.788 7
      2863.994        2227.553
  22476360.387    22476358.922    22476361.912   120233373.451 6  93514878.880 4
     -4114.174       -3199.909
  19101353.012    19101352.702    19101354.888   102143518.666 9  79444991.139 7
      -926.426        -720.549
 08 11 18  9 11 45.0000000  0 11G 1G14G24G30G31R 7R14R15R17R23R24
  22241795.460    22241794.7764   22241797.8764  116881418.840 6  91076452.18044
      2700.756        2104.481
  23316387.648    23316387.3714   23316388.0884  122528427.308 5  95476717.25741
     -2853.830       -2223.774
  24080647.631    24080647.4064   24080649.0814  126544649.511 5  98606244.99841
      3591.779        2798.759
  19748062.240    19748062.4974   19748063.5674  103776766.179 8  80865027.23747
       131.560         102.503
  22305957.979    22305958.3474   22305958.4464  117218602.430 7  91339183.26644
      2325.466        1812.044
  22919145.114    22919145.197    22919144.442   122687966.630 6  95424019.734 5
      -605.579        -471.006
  20224186.182    20224185.690    20224190.353   108223700.061 8  84174020.832 7
     -3181.949       -2474.853
  19374315.200    19374314.848    19374318.132   103530464.501 8  80523725.685 7
      1125.638         875.483
  20447984.834    20447983.838    20447986.659   109229471.975 8  84956284.761 7
      2859.389        2223.963
  22487895.794    22487893.945    22487897.427   120295076.992 6  93562870.506 5
     -4113.509       -3199.394
  19103961.943    19103961.441    19103963.664   102157468.483 9  79455840.995 7
      -934.058        -726.501
 08 11 18  9 12  0.0000000  0 11G 1G14G24G30G31R 7R14R15R17R23R24
  22234086.934    22234086.7324   22234089.4994  116840911.042 7  91044887.65544
      2700.051        2103.946
  23324536.552    23324535.9854   23324538.5674  122571251.099 5  95510086.41141
     -2856.303       -2225.618
  24070391.296    24070389.3374   24070395.0924  126490750.089 5  98564245.51141
      3594.300        2800.728
  19747692.101    19747692.2384   19747693.2854  103774820.482 8  80863511.10947
       127.368          99.256
  22299323.094    22299323.3544   22299323.4714  117183734.235 7  91312013.24944
      2323.206        1810.287
  22920854.683    22920854.183    22920852.698   122697111.879 6  95431132.690 5
      -614.521        -477.932
  20233112.024    20233111.692    20233116.303   108271464.957 8  84211171.296 7
     -3187.097       -2478.843
  19371165.485    19371165.450    19371168.799   103513635.516 8  80510636.474 7
      1117.911         869.492
  20439961.127    20439959.671    20439962.565   109186608.946 8  84922946.861 7
      2855.368        2220.847
  22499425.956    22499426.188    22499429.510   120356766.540 6  93610851.246 5
     -4112.211       -3198.379
  19106591.445    19106590.748    19106592.999   102171528.752 9  79466776.757 7
      -940.991        -731.869
 08 11 18  9 12 15.0000000  0 11G 1G14G24G30G31R 7R14R15R17R23R24
  22226382.582    22226381.6844   22226384.4314  116800421.900 6  91013337.66244
      2698.089        2102.404
  23332692.927    23332692.3834   23332694.0234  122614112.351 5  95543484.77042
     -2858.981       -2227.809
  24060128.333    24060125.8344   24060131.7744  126436821.243 5  98522223.13741
      3595.587        2801.781
  19747335.376    19747335.7634   19747336.7214  103772946.880 8  80862051.15947
       121.926          94.998
  22292695.320    22292695.5694   22292696.1434  117148909.154 7  91284876.82644
      2319.670        1807.526
  22922588.024    22922588.987    22922588.446   122706400.210 6  95438356.953 5
      -624.628        -485.817
  20242053.805    20242054.023    20242058.611   108319316.691 8  84248389.296 7
     -3193.631       -2483.936
  19368039.177    19368039.148    19368042.698   103496930.112 8  80497643.387 7
      1108.926         862.482
  20431949.722    20431948.192    20431951.154   109143813.954 7  84889661.889 7
      2850.092        2216.744
  22510957.234    22510956.103    22510958.851   120418443.508 6  93658822.192 5
     -4111.932       -3198.156
  19109241.670    19109241.062    19109243.190   102185701.088 9  79477799.684 7
      -949.227        -738.293
 08 11 18  9 12 30.0000000  0 11G 1G14G24G30G31R 7R14R15R17R23R24
  22218681.206    22218680.6514   22218683.5474  116759952.737 7  90981803.23944
      2696.979        2101.521
  23340856.579    23340855.6454   23340857.6124  122657011.713 6  95576912.81742
     -2861.685       -2229.890
  24049860.740    24049859.4134   24049863.6414  126382864.305 5  98480178.84141
      3597.786        2803.489
  19746992.939    19746993.0194   19746994.1634  103771146.348 8  80860648.14647
       117.406          91.478
  22286077.520    22286077.6744   22286077.3494  117114128.646 7  91257775.13444
      2316.995        1805.441
  22924350.492    22924350.392    22924350.302   122715831.896 6  95445692.702 5
      -633.740        -492.923
  20251012.765    20251012.693    20251017.210   108367255.860 8  84285675.303 7
     -3199.108       -2488.203
  19364936.326    19364936.332    19364940.172   103480349.725 8  80484747.532 7
      1100.951         856.281
  20423951.612    20423949.887    20423952.912   109101088.076 8  84856430.670 7
      2845.875        2213.444
  22522484.208    22522484.041    22522486.243   120480108.788 6  93706784.064 4
     -4110.752       -3197.246
  19111913.237    19111912.496    19111914.746   102199986.270 9  79488910.378 7
      -956.302        -743.798
 08 11 18  9 12 45.0000000  0 11G 1G14G24G30G31R 7R14R15R17R23R24
  22210983.821    22210983.4734   22210986.4734  116719504.063 7  90950284.78444
      2695.243        2100.192
  23349025.993    23349026.3114   23349028.4124  122699949.460 5  95610370.79242
     -2864.345       -2231.964
  24039586.361    24039587.9014   24039590.7674  126328880.147 5  98438113.34041
      3598.715        2804.244
  19746664.369    19746664.4404   19746665.5314  103769419.489 8  80859302.54347
       111.975          87.259
  22279467.272    22279467.7024   22279467.4384  117079393.367 7  91230708.69044
      2313.548        1802.771
  22926140.157    22926140.023    22926138.392   122725407.756 6  95453140.575 5
      -643.690        -500.639
  20259988.160    20259987.718    20259992.334   108415283.048 8  84323029.772 7
     -3205.372       -2493.068
  19361857.146    19361857.170    19361860.643   103463894.918 8  80471949.354 7
      1092.209         849.501
  20415965.865    20415964.685    20415967.628   109058432.193 8  84823253.892 7
      2840.757        2209.471
  22534009.904    22534009.418    22534012.488   120541762.288 6  93754736.761 5
     -4110.317       -3196.902
  19114605.524    19114604.990    19114607.291   102214384.561 9  79500109.048 7
      -964.259        -749.987
 08 11 18  9 13  0.0000000  0 11G 1G14G24G30G31R 7R14R15R17R23R24
  22203292.633    22203291.4874   22203294.1674  116679081.999 7  90918787.06544
      2693.886        2099.141
  23357205.715    23357206.2014   23357206.3924  122742930.856 5  95643862.76742
     -2866.625       -2233.762
  24029309.717    24029309.7174   24029314.3994  126274875.057 5  98396031.57941
      3600.834        2805.799
  19746350.850    19746351.0604   19746352.0754  103767772.350 8  80858019.05447
       107.061          83.423
  22272867.091    22272867.7744   22272867.4984  117044709.522 7  91203682.31544
      2310.406        1800.314
  22927957.942    22927956.393    22927955.970   122735133.309 6  95460704.882 5
      -653.618        -508.367
  20268980.096    20268980.169    20268984.806   108463403.314 8  84360456.630 7
     -3211.232       -2497.624
  19358802.518    19358802.402    19358806.031   103447571.827 8  80459253.620 7
      1083.679         842.859
  20407994.979    20407993.633    20407996.661   109015852.353 8  84790136.268 7
      2836.029        2205.786
  22545535.494    22545534.018    22545536.809   120603409.801 6  93802684.810 5
     -4109.812       -3196.519
  19117320.475    19117319.876    19117322.014   102228901.761 9  79511400.203 7
      -971.825        -755.858
 08 11 18  9 13 15.0000000  0 16G 1G 2G 4G 5G12G14G24G29G30G31R 7R14
                                R15R17R23R24
  22195605.411    22195604.4834   22195607.3344  116638686.025 6  90887309.66544
      2691.815        2097.502
  21852872.255                                   114837620.560 7
       318.637
  23739243.712                                   124750570.463 5
     -2591.164
  20461326.735                                   107524995.018 8
     -1766.899
  21412799.417                                   112525025.250 7
     -2342.617
  23365393.404    23365392.8384   23365394.7894  122785954.995 5  95677388.04442
     -2870.134       -2236.397
  24019028.533    24019027.9774   24019034.1944  126220848.763 5  98353933.24741
      3602.149        2806.899
  21082405.161                                   110788786.804 8
      2124.457
  19746052.500    19746052.6464   19746053.7194  103766204.353 8  80856797.23646
       101.457          79.059
  22266277.206    22266277.2314   22266277.2834  117010076.708 7  91176695.71544
      2306.716        1797.443
  22929801.394    22929800.541    22929800.810   122745008.281 6  95468385.428 5
      -663.611        -516.141
  20277989.946    20277989.819    20277994.491   108511616.058 8  84397955.417 7
     -3217.670       -2502.626
  19355772.466    19355772.399    19355775.966   103431380.308 8  80446660.219 7
      1074.615         835.811
  20400038.354    20400036.911    20400039.554   108973348.345 8  84757077.623 7
      2830.578        2201.551
  22557058.086    22557056.631    22557058.968   120665049.912 6  93850627.093 4
     -4109.916       -3196.594
  19120057.023    19120056.642    19120058.789   102243536.852 9  79522783.049 7
      -980.061        -762.268
 08 11 18  9 13 30.0000000  0 16G 1G 2G 4G 5G12G14G24G29G30G31R 7R14
                                R15R17R23R24
  22187923.714    22187922.8974   22187925.8874  116598318.557 7  90855854.47844
      2689.934        2096.042
  21851971.878    21851971.5184   21851971.3404  114832889.434 7  89480185.67144
       311.486         242.724
  23746644.718    23746646.6774   23746650.8004  124789463.490 5  97238560.17041
     -2595.320       -2022.328
  20466375.167    20466374.5034   20466376.5104  107551525.747 8  83806399.85646
     -1771.222       -1380.167
  21419488.822    21419488.4714   21419490.7614  112560174.498 7  87709240.04345
     -2344.752       -1827.080
  23373588.136    23373587.9914   23373589.9744  122829023.659 5  95710948.01541
     -2872.848       -2238.584
  24008744.903    24008743.8034   24008749.6244  126166803.800 5  98311820.37241
      3603.327        2807.745
  21076345.742                                   110756944.478 7
      2120.453
  19745769.615    19745769.7404   19745770.8024  103764717.716 9  80855638.81747
        96.019          74.825
  22259697.011    22259697.0354   22259696.8544  116975497.368 7  91149750.77244
      2303.074        1794.606
  22931674.472    22931674.286    22931673.014   122755034.839 6  95476183.853 5
      -673.800        -524.070
  20287017.453    20287017.194    20287021.787   108559923.132 8  84435527.568 7
     -3223.981       -2507.537
  19352767.382    19352767.432    19352771.047   103415322.978 8  80434171.191 7
      1065.688         828.866
  20392096.214    20392094.672    20392097.355   108930922.432 8  84724079.714 7
      2825.460        2197.583
  22568579.008    22568578.721    22568581.862   120726684.875 6  93898565.384 5
     -4108.939       -3195.840
  19122816.065    19122815.999    19122818.142   102258292.005 9  79534259.275 7
      -988.023        -768.453
 08 11 18  9 13 45.0000000  0 16G 1G 2G 4G 5G12G14G24G29G30G31R 7R14
                                R15R17R23R24
  22180246.800    22180246.8554   22180249.7654  116557981.641 7  90824423.09944
      2687.717        2094.328
  21851092.283    21851092.0524   21851091.8694  114828268.048 7  89476584.60144
       304.031         236.895
  23754060.706    23754059.9264   23754062.4174  124828427.543 5  97268921.72841
     -2600.422       -2026.276
  20471436.241    20471435.5964   20471437.5854  107578122.007 8  83827124.20746
     -1775.740       -1383.698
  21426183.739    21426183.9324   21426184.6794  112595358.664 7  87736656.26845
     -2347.224       -1829.013
  23381793.258    23381793.1424   23381794.7334  122872138.442 5  95744543.93941
     -2876.650       -2241.525
  23998457.423    23998457.6514   23998462.2744  126112742.502 5  98269694.74941
      3604.214        2808.401
  21070297.648    21070297.9724   21070299.4984  110725163.948 7  86279363.26846
      2116.097        1648.898
  19745502.576    19745502.6534   19745503.7614  103763314.307 8  80854545.25047
        90.280          70.342
  22253126.913    22253127.2574   22253127.3444  116940973.797 7  91122849.29144
      2299.260        1791.610
  22933576.095    22933575.488    22933575.573   122765214.324 6  95484101.213 5
      -684.432        -532.358
  20296063.012    20296062.474    20296067.211   108608326.262 8  84473174.437 7
     -3230.669       -2512.750
  19349788.088    19349788.011    19349791.592   103399401.608 8  80421787.907 7
      1056.374         821.612
  20384168.824    20384167.554    20384169.805   108888576.884 8  84691144.302 7
      2819.821        2193.181
  22580101.065    22580099.848    22580103.359   120788316.306 5  93946500.931 5
     -4109.278       -3196.104
  19125598.566    19125597.912    19125600.051   102273168.794 9  79545830.112 7
      -996.343        -774.937
 08 11 18  9 14  0.0000000  0 16G 1G 2G 4G 5G12G14G24G29G30G31R 7R14
                                R15R17R23R24
  22172577.421    22172576.8284   22172579.6834  116517675.586 7  90793015.77144
      2685.778        2092.822
  21850233.968    21850233.6704   21850233.3374  114823756.819 6  89473069.36344
       296.929         231.387
  23761488.890    23761488.0404   23761490.5854  124867462.265 5  97299338.39341
     -2604.894       -2029.824
  20476509.945    20476509.2244   20476511.1884  107604783.817 8  83847899.63746
     -1779.740       -1386.810
  21432885.990    21432886.0704   21432886.7624  112630577.858 7  87764099.78245
     -2349.286       -1830.614
  23390006.157    23390006.4204   23390008.3364  122915298.979 5  95778175.51141
     -2878.629       -2243.126
  23988167.760    23988166.6084   23988170.8544  126058665.456 5  98227556.86241
      3605.459        2809.520
  21064262.519                                   110693447.976 7
      2112.229
  19745251.401    19745251.5634   19745252.5894  103761994.395 8  80853516.74547
        85.018          66.246
  22246568.414    22246568.6754   22246568.1984  116906506.485 7  91095991.64544
      2295.756        1788.904
  22935505.511    22935505.275    22935505.310   122775547.199 6  95492137.893 5
      -694.101        -539.855
  20305125.909    20305125.662    20305130.391   108656825.209 8  84510895.825 7
     -3236.680       -2517.416
  19346834.378    19346834.145    19346837.641   103383616.989 8  80409510.986 7
      1047.569         814.776
  20376256.857    20376255.434    20376258.078   108846312.180 8  84658271.769 7
      2814.770        2189.270
  22591623.030    22591620.500    22591623.820   120849943.934 6  93994433.497 5
     -4108.309       -3195.347
  19128403.427    19128402.816    19128405.039   102288167.188 9  79557495.528 7
     -1004.114        -780.975
 08 11 18  9 14 15.0000000  0 16G 1G 2G 4G 5G12G14G24G29G30G31R 7R14
                                R15R17R23R24
  22164913.790    22164913.1094   22164916.1484  116477402.324 7  90761633.99244
      2683.642        2091.165
  21849396.486    21849396.5334   21849396.3574  114819357.413 7  89469641.26144
       289.477         225.565
  23768929.673    23768930.9754   23768931.8404  124906569.332 5  97329811.42841
     -2609.545       -2033.398
  20481596.089    20481595.5264   20481597.6314  107631512.845 8  83868727.44246
     -1784.326       -1390.380
  21439594.684    21439594.8574   21439595.6704  112665833.569 7  87791571.75245
     -2351.697       -1832.489
  23398228.956    23398228.4774   23398230.7404  122958506.877 5  95811843.96942
     -2881.929       -2245.670
  23977873.989    23977873.7974   23977878.8284  126004574.704 5  98185408.34041
      3606.343        2810.142
  21058238.478    21058238.6884   21058240.3564  110661794.487 8  86229980.92646
      2107.855        1642.492
  19745016.403    19745016.5314   19745017.6274  103760759.634 8  80852554.58847
        79.387          61.867
  22240020.336    22240020.5754   22240020.6194  116872097.417 7  91069179.38244
      2291.890        1785.896
  22937465.727    22937465.371    22937464.997   122786034.689 6  95500294.833 5
      -704.214        -547.695
  20314207.390    20314207.078    20314211.677   108705421.452 8  84548692.889 7
     -3243.025       -2522.347
  19343906.306    19343906.157    19343909.783   103367970.970 8  80397341.869 7
      1038.314         807.586
  20368359.870    20368358.838    20368361.519   108804130.315 8  84625463.671 7
      2809.311        2185.021
  22603142.824    22603141.064    22603143.510   120911569.266 6  94042364.281 5
     -4108.541       -3195.520
  19131231.208    19131230.557    19131232.792   102303288.710 9  79569256.712 7
     -1012.365        -787.392
 08 11 18  9 14 30.0000000  0 16G 1G 2G 4G 5G12G14G24G29G30G31R 7R14
                                R15R17R23R24
  22157255.807    22157254.9764   22157257.8764  116437158.457 7  90730275.12544
      2681.265        2089.301
  21848579.736    21848579.8984   21848579.6434  114815066.329 7  89466297.57344
       281.778         219.577
  23776386.016    23776385.4704   23776386.9724  124945744.633 5  97360337.61441
     -2614.607       -2037.330
  20486694.601    20486694.0864   20486696.0424  107658305.436 8  83889604.77646
     -1788.936       -1393.984
  21446309.899    21446310.0814   21446310.9824  112701122.278 7  87819069.43845
     -2354.279       -1834.499
  23406458.062    23406458.7784   23406461.9684  123001758.193 5  95845546.28342
     -2885.735       -2248.691
  23967577.238    23967576.8014   23967581.4704  125950467.217 5  98143246.71041
      3606.771        2810.401
  21052226.717    21052227.0474   21052228.5044  110630202.217 7  86205363.58446
      2103.445        1639.042
  19744796.990    19744797.1974   19744798.2834  103759606.704 8  80851656.20047
        73.597          57.346
  22233483.220    22233483.4184   22233483.2364  116837743.353 6  91042409.98544
      2287.838        1782.736
  22939452.671    22939452.564    22939451.726   122796673.651 6  95508569.547 5
      -714.780        -555.951
  20323306.411    20323305.973    20323310.482   108754111.173 8  84586562.654 7
     -3249.737       -2527.569
  19341004.022    19341003.641    19341007.210   103352460.475 8  80385278.153 7
      1028.835         800.196
  20360478.320    20360477.233    20360479.779   108762027.924 8  84592717.377 7
      2803.459        2180.461
  22614662.034    22614660.024    22614663.390   120973188.290 5  94090290.188 5
     -4108.296       -3195.347
  19134081.115    19134080.701    19134082.897   102318529.749 9  79581110.855 7
     -1020.693        -793.875
 08 11 18  9 14 45.0000000  0 16G 1G 2G 4G 5G12G14G24G29G30G31R 7R14
                                R15R17R23R24
  22149604.840    22149603.7144   22149606.4774  116396950.652 7  90698944.35044
      2678.742        2087.339
  21847785.330    21847785.0214   21847785.0494  114810890.086 7  89463043.36045
       274.004         213.509
  23783854.513    23783854.1654   23783856.6754  124984994.465 5  97390921.88241
     -2619.869       -2041.531
  20491806.378    20491805.8154   20491807.8614  107685167.902 8  83910536.55946
     -1793.699       -1397.696
  21453032.576    21453032.8734   21453033.6134  112736450.366 7  87846597.80745
     -2357.050       -1836.664
  23414699.717    23414698.6824   23414699.9284  123045058.844 5  95879287.00742
     -2888.875       -2251.072
  23957279.259    23957279.0904   23957283.4514  125896349.604 5  98101077.16741
      3607.983        2811.423
  21046227.969    21046228.1584   21046229.6264  110598677.644 7  86180798.99846
      2099.005        1635.589
  19744594.462    19744594.6094   19744595.6704  103758542.130 8  80850826.65847
        67.441          52.544
  22226957.123    22226957.5664   22226957.6204  116803450.969 7  91015688.64544
      2283.627        1779.444
  22941468.675    22941469.131    22941469.148   122807470.267 6  95516966.917 5
      -725.662        -564.366
  20332423.288    20332423.289    20332427.948   108802900.401 8  84624509.823 7
     -3256.405       -2532.755
  19338127.848    19338127.714    19338131.279   103337092.106 8  80373324.987 7
      1019.279         792.772
  20352612.798    20352611.736    20352614.499   108720011.817 8  84560038.204 7
      2797.578        2175.895
  22626179.839    22626178.617    22626182.030   121034807.148 5  94138215.922 5
     -4108.214       -3195.277
  19136954.986    19136954.398    19136956.533   102333896.611 9  79593062.859 7
     -1029.188        -800.482
 08 11 18  9 15  0.0000000  0 16G 1G 2G 4G 5G12G14G24G29G30G31R 7R14
                                R15R17R23R24
  22141960.223    22141959.1534   22141962.0794  116356779.177 6  90667641.89744
      2676.532        2085.606
  21847012.308    21847012.3904   21847012.2284  114806828.956 7  89459878.85844
       266.656         207.786
  23791336.863    23791337.7874   23791339.1694  125024318.493 5  97421563.97541
     -2624.311       -2044.912
  20496931.589    20496930.9194   20496932.8044  107712100.255 8  83931522.80146
     -1798.076       -1401.109
  21459762.728    21459763.0884   21459763.8974  112771817.776 7  87874156.81845
     -2359.330       -1838.441
  23422948.762    23422947.9494   23422950.1954  123088408.665 5  95913066.06841
     -2891.815       -2253.364
  23946980.103    23946978.7654   23946982.9784  125842222.340 5  98058900.14541
      3608.675        2811.945
  21040241.837    21040241.9904   21040243.5564  110567221.100 8  86156287.41946
      2094.436        1632.027
  19744408.655    19744408.9114   19744409.9424  103757566.051 8  80850066.07847
        61.809          48.161
  22220443.559    22220443.7114   22220443.8604  116769220.723 6  90989015.72844
      2279.661        1776.354
  22943516.622    22943515.871    22943515.258   122818424.694 6  95525487.018 5
      -735.849        -572.334
  20341559.387    20341559.516    20341564.047   108851788.988 8  84662534.262 7
     -3262.789       -2537.728
  19335278.836    19335278.529    19335282.092   103321866.578 8  80361482.913 8
      1009.943         785.503
  20344763.552    20344762.150    20344765.315   108678082.236 8  84527426.323 7
      2792.133        2171.643
  22637700.567    22637698.311    22637701.484   121096425.546 6  94186141.315 5
     -4108.159       -3195.228
  19139851.726    19139851.544    19139853.694   102349389.041 9  79605112.527 7
     -1037.285        -806.777
 08 11 18  9 15 15.0000000  0 16G 1G 2G 4G 5G12G14G24G29G30G31R 7R14
                                R15R17R23R24
  22134322.809    22134322.0984   22134325.2454  116316644.941 7  90636368.46144
      2673.762        2083.454
  21846261.873    21846261.5004   21846261.5534  114802883.733 7  89456804.65444
       258.608         201.514
  23798834.176    23798836.3034   23798837.3314  125063717.344 5  97452264.36441
     -2629.535       -2049.009
  20502069.957    20502069.3604   20502071.3984  107739103.144 8  83952564.00346
     -1803.075       -1405.001
  21466501.060    21466500.8874   21466501.6924  112807225.154 7  87901746.96745
     -2362.404       -1840.835
  23431206.697    23431206.5884   23431209.0134  123131808.121 5  95946883.80942
     -2895.433       -2256.181
  23936675.826    23936677.3184   23936681.3444  125788086.694 5  98016716.57241
      3609.058        2812.226
  21034269.194    21034269.1654   21034270.6824  110535833.539 8  86131829.58646
      2089.644        1628.290
  19744240.141    19744240.2014   19744241.1544  103756679.246 8  80849375.05647
        55.566          43.296
  22213941.212    22213941.9874   22213941.9874  116735053.602 7  90962391.99744
      2275.168        1772.844
  22945593.504    22945592.001    22945591.430   122829537.371 6  95534130.207 5
      -746.715        -580.790
  20350714.289    20350714.002    20350718.676   108900777.251 8  84700636.233 7
     -3269.751       -2543.148
  19332456.412    19332456.065    19332459.618   103306784.537 8  80349752.442 7
      1000.132         777.877
  20336930.787    20336929.201    20336932.126   108636240.270 8  84494882.590 7
      2785.995        2166.883
  22649216.738    22649217.250    22649219.724   121158044.079 5  94234066.807 5
     -4108.356       -3195.375
  19142772.891    19142772.369    19142774.511   102365007.696 9  79617260.368 7
     -1046.009        -813.560
 08 11 18  9 15 30.0000000  0 16G 1G 2G 4G 5G12G14G24G29G30G31R 7R14
                                R15R17R23R24
  22126692.840    22126692.1594   22126695.2634  116276549.302 7  90605125.09744
      2671.572        2081.736
  21845533.136    21845533.0704   21845533.0504  114799055.735 7  89453821.81044
       250.855         195.469
  23806347.121    23806346.1194   23806349.0114  125103191.822 5  97483023.67441
     -2634.177       -2052.629
  20507221.971    20507221.4774   20507223.4384  107766177.704 8  83973661.05446
     -1807.683       -1408.581
  21473246.433    21473246.4024   21473247.2674  112842673.649 7  87929369.15745
     -2364.975       -1842.840
  23439475.298    23439475.0754   23439476.5394  123175257.982 5  95980740.82342
     -2898.110       -2258.255
  23926374.813    23926373.6424   23926376.0124  125733944.109 5  97974527.56841
      3609.185        2812.308
  21028309.466    21028309.7394   21028311.2124  110504516.257 8  86107426.51046
      2085.092        1624.743
  19744088.507    19744088.6124   19744089.6514  103755883.007 8  80848754.60947
        49.789          38.795
  22207452.420    22207452.5474   22207452.3774  116700951.171 7  90935818.67044
      2270.995        1769.603
  22947699.294    22947697.932    22947697.858   122840809.596 6  95542897.477 5
      -757.329        -589.032
  20359887.942    20359887.575    20359892.129   108949866.509 8  84738816.747 7
     -3276.341       -2548.261
  19329660.874    19329660.845    19329664.220   103291847.275 8  80338134.577 7
       990.658         770.514
  20329114.850    20329113.273    20329115.744   108594487.556 8  84462408.264 7
      2780.221        2162.391
  22660738.158    22660736.292    22660739.080   121219663.716 6  94281993.157 5
     -4108.321       -3195.359
  19145717.264    19145716.861    19145719.072   102380753.649 9  79629507.220 7
     -1054.315        -820.020
 08 11 18  9 15 45.0000000  0 16G 1G 2G 4G 5G12G14G24G29G30G31R 7R14
                                R15R17R23R24
  22119069.970    22119069.0494   22119072.2214  116236490.992 7  90573910.82444
      2668.643        2079.484
  21844826.604    21844826.7204   21844826.3934  114795343.441 7  89450929.11544
       243.012         189.353
  23813872.717    23813872.1554   23813875.8894  125142740.315 5  97513840.65641
     -2639.604       -2056.821
  20512387.442    20512387.0034   20512388.9864  107793322.278 8  83994812.66246
     -1812.622       -1412.436
  21479999.730    21479999.6304   21480000.4454  112878161.569 7  87957022.06445
     -2367.781       -1845.020
  23447753.171    23447752.5814   23447753.0654  123218756.599 5  96014635.81741
     -2902.235       -2261.481
  23916069.825    23916070.7934   23916073.7634  125679793.468 5  97932332.30341
      3609.712        2812.727
  21022363.064    21022363.3614   21022364.7764  110473267.958 8  86083077.19346
      2080.336        1621.042
  19743953.763    19743954.0464   19743955.0734  103755175.708 8  80848203.46347
        43.585          33.966
  22200975.156    22200975.3114   22200975.6414  116666912.215 7  90909294.81044
      2266.535        1766.129
  22949833.820    22949833.041    22949831.788   122852239.817 6  95551787.647 5
      -767.972        -597.327
  20369079.659    20369079.607    20369084.037   108999054.461 8  84777074.030 7
     -3283.000       -2553.443
  19326892.350    19326892.588    19326895.874   103277054.441 8  80326629.045 7
       980.769         762.820
  20321314.471    20321313.301    20321316.428   108552822.589 8  84430002.188 7
      2774.129        2157.655
  22672257.421    22672255.022    22672258.397   121281282.385 5  94329918.794 5
     -4108.582       -3195.569
  19148685.349    19148684.902    19148687.033   102396624.647 9  79641851.325 7
     -1062.860        -826.672
 08 11 18  9 16  0.0000000  0 16G 1G 2G 4G 5G12G14G24G29G30G31R 7R14
                                R15R17R23R24
  22111455.164    22111454.6294   22111457.5284  116196475.272 7  90542729.74244
      2665.856        2077.288
  21844143.587    21844143.2924   21844143.2604  114791752.149 6  89448130.71344
       235.048         183.154
  23821414.222    23821413.8154   23821415.1104  125182367.416 5  97544718.91141
     -2644.722       -2060.898
  20517567.278    20517566.7224   20517568.6634  107820541.922 8  84016022.76246
     -1817.632       -1416.339
  21486761.029    21486761.3014   21486762.1024  112913693.983 7  87984709.64245
     -2370.751       -1847.335
  23456040.913    23456039.7564   23456042.4074  123262308.515 5  96048572.35141
     -2905.625       -2264.111
  23905764.911    23905764.6044   23905770.0284  125625640.258 5  97890134.98841
      3609.993        2812.952
  21016430.968    21016431.0444   21016432.4944  110442093.837 8  86058785.67646
      2075.292        1617.109
  19743837.145    19743837.4034   19743838.4324  103754562.734 8  80847725.82047
        37.292          29.057
  22194511.252    22194511.1804   22194510.9694  116632942.183 7  90882824.65044
      2261.723        1762.385
  22951998.500    22951998.281    22951998.081   122863833.050 6  95560804.616 5
      -778.768        -605.722
  20378291.366    20378290.996    20378295.411   109048346.324 8  84815412.128 7
     -3290.026       -2558.911
  19324152.184    19324152.087    19324155.545   103262410.775 8  80315239.533 7
       970.797         755.063
  20313532.600    20313531.064    20313533.644   108511250.791 8  84397668.579 7
      2767.937        2152.851
  22683775.676    22683775.152    22683777.981   121342904.831 5  94377847.328 5
     -4108.635       -3195.609
  19151677.638    19151677.228    19151679.529   102412626.021 9  79654296.839 7
     -1071.587        -833.454
 08 11 18  9 16 15.0000000  0 16G 1G 2G 4G 5G12G14G24G29G30G31R 7R14
                                R15R17R23R24
  22103848.788    22103847.7524   22103850.8234  116156501.211 6  90511581.12844
      2663.013        2075.073
  21843482.998    21843482.8344   21843482.3694  114788280.789 6  89445425.75544
       226.925         176.827
  23828969.037    23828968.3504   23828970.2884  125222071.851 5  97575657.40741
     -2649.841       -2064.770
  20522761.073    20522760.4134   20522762.4244  107847835.375 8  84037290.37646
     -1822.649       -1420.259
  21493530.625    21493531.1654   21493531.8224  112949269.681 8  88012430.95745
     -2373.687       -1849.633
  23464339.210    23464337.0324   23464340.2234  123305912.173 5  96082549.22342
     -2908.923       -2266.691
  23895458.962    23895457.4004   23895462.4424  125571483.811 5  97847935.18141
      3610.159        2813.100
  21010512.392    21010512.8404   21010514.2654  110410992.853 8  86034551.15546
      2070.402        1613.284
  19743738.237    19743738.4544   19743739.5084  103754042.883 8  80847320.73647
        31.043          24.179
  22188059.764    22188059.6254   22188059.9464  116599040.121 7  90856407.45844
      2257.393        1758.993
  22954195.875    22954194.303    22954193.545   122875587.954 6  95569947.309 5
      -789.568        -614.114
  20387521.395    20387521.410    20387525.922   109097740.323 8  84853829.671 7
     -3296.832       -2564.220
  19321439.944    19321439.648    19321443.064   103247915.842 8  80303965.703 7
       960.948         747.397
  20305767.187    20305766.097    20305768.620   108469771.532 8  84365406.947 7
      2761.680        2147.963
  22695296.939    22695295.339    22695297.782   121404530.146 5  94425778.125 5
     -4109.294       -3196.122
  19154694.461    19154693.687    19154696.011   102428756.343 9  79666842.643 7
     -1080.257        -840.205
 08 11 18  9 16 30.0000000  0 16G 1G 2G 4G 5G12G14G24G29G30G31R 7R14
                                R15R17R23R24
  22096249.565    22096248.7514   22096251.9584  116116569.145 7  90480465.24344
      2660.402        2073.044
  21842845.289    21842844.7834   21842844.6834  114784929.524 7  89442814.38944
       219.289         170.876
  23836539.104    23836539.8954   23836542.4044  125261853.312 5  97606655.92841
     -2654.954       -2068.804
  20527969.070    20527968.2824   20527970.2744  107875202.695 8  84058615.54746
     -1827.249       -1423.832
  21500309.358    21500309.3634   21500309.9104  112984888.680 7  88040186.00345
     -2376.336       -1851.687
  23472645.030    23472644.8844   23472646.5464  123349567.444 5  96116566.28241
     -2912.201       -2269.229
  23885154.455    23885152.7674   23885156.8094  125517324.652 5  97805733.23641
      3610.044        2813.023
  21004608.557    21004608.5004   21004609.8224  110379965.398 8  86010373.92446
      2065.744        1609.675
  19743657.036    19743657.2974   19743658.3414  103753616.384 8  80846988.39647
        25.023          19.497
  22181621.227    22181621.3464   22181621.2664  116565206.567 7  90830043.65244
      2252.987        1755.574
  22956421.666    22956420.718    22956420.385   122887504.388 6  95579215.645 5
      -800.137        -622.325
  20396771.299    20396770.975    20396775.582   109147236.589 8  84892326.752 7
     -3303.412       -2569.321
  19318754.876    19318755.000    19318758.392   103233569.844 8  80292807.707 7
       951.147         739.774
  20298019.762    20298018.369    20298020.959   108428384.983 8  84333217.424 7
      2755.745        2143.349
  22706815.627    22706815.324    22706818.483   121466157.478 5  94473710.475 5
     -4108.720       -3195.670
  19157734.474    19157734.202    19157736.387   102445015.210 9  79679488.428 7
     -1088.530        -846.643
 08 11 18  9 16 45.0000000  0 16G 1G 2G 4G 5G12G14G24G29G30G31R 7R14
                                R15R17R23R24
  22088658.680    22088657.9054   22088660.8654  116076678.996 6  90449382.01944
      2657.771        2070.991
  21842230.177    21842230.2624   21842229.8884  114781698.257 7  89440296.51944
       211.247         164.597
  23844123.246    23844124.1434   23844126.3334  125301711.445 5  97637714.19841
     -2659.977       -2072.712
  20533190.992    20533190.1304   20533192.1054  107902643.592 8  84079998.05746
     -1832.008       -1427.546
  21507095.445    21507095.5104   21507096.2434  113020550.640 7  88067974.53445
     -2379.087       -1853.844
  23480962.841    23480961.9934   23480962.3174  123393273.762 5  96150623.12842
     -2915.488       -2271.833
  23874846.029    23874846.6714   23874849.2134  125463163.972 4  97763530.24941
      3610.970        2813.742
  20998718.141    20998718.1744   20998719.5324  110349011.454 7  85986253.97246
      2060.929        1605.913
  19743593.686    19743593.8744   19743594.9634  103753283.255 8  80846728.81547
        19.002          14.798
  22175196.023    22175195.9594   22175195.9564  116531441.686 7  90803733.35344
      2248.586        1752.132
  22958676.919    22958676.970    22958676.329   122899582.238 6  95588609.517 5
      -810.643        -630.489
  20406039.680    20406039.475    20406044.145   109196834.538 8  84930902.919 7
     -3310.114       -2574.530
  19316098.393    19316098.159    19316101.652   103219372.802 8  80281765.568 7
       941.297         732.119
  20290289.259    20290288.280    20290290.997   108387091.332 8  84301100.150 7
      2749.578        2138.553
  22718335.797    22718336.338    22718339.685   121527786.773 5  94521644.350 5
     -4108.921       -3195.828
  19160799.178    19160798.635    19160800.928   102461402.673 9  79692234.234 7
     -1096.948        -853.185
 08 11 18  9 17  0.0000000  0 16G 1G 2G 4G 5G12G14G24G29G30G31R 7R14
                                R15R17R23R24
  22081076.414    22081075.4464   22081078.4384  116036832.684 7  90418332.95144
      2654.460        2068.414
  21841639.176    21841638.2974   21841637.9594  114778588.700 7  89437873.48844
       202.755         157.982
  23851723.876    23851724.0434   23851725.0914  125341647.694 5  97668833.34741
     -2665.585       -2077.087
  20538426.817    20538426.2514   20538428.3594  107930159.659 8  84101439.13846
     -1837.421       -1431.757
  21513890.268    21513890.2284   21513890.9434  113056257.174 8  88095797.79745
     -2382.381       -1856.401
  23489288.874    23489288.7124   23489290.5404  123437032.488 5  96184720.81041
     -2919.671       -2275.067
  23864540.403    23864539.7434   23864543.0624  125409001.856 5  97721326.06541
      3610.406        2813.231
  20992841.979    20992842.1324   20992843.6324  110318132.877 7  85962192.75146
      2055.621        1601.785
  19743548.381    19743548.5934   19743549.5974  103753045.063 8  80846543.20847
        12.219           9.517
  22168783.761    22168784.0854   22168784.1944  116497747.376 6  90777478.04544
      2243.411        1748.107
  22960962.775    22960963.246    22960962.743   122911822.852 6  95598129.994 5
      -821.980        -639.322
  20415327.948    20415327.294    20415331.916   109246535.386 8  84969559.119 7
     -3317.378       -2580.181
  19313470.077    19313469.689    19313473.115   103205326.647 9  80270840.784 7
       930.902         724.039
  20282576.885    20282575.664    20282578.291   108345892.456 8  84269056.593 7
      2742.987        2133.434
  22729858.037    22729858.011    22729861.244   121589419.309 5  94569580.744 5
     -4109.355       -3196.178
  19163888.101    19163887.546    19163889.808   102477920.366 9  79705081.326 7
     -1106.009        -860.231
 08 11 18  9 17 15.0000000  0 16G 1G 2G 4G 5G12G14G24G29G30G31R 7R14
                                R15R17R23R24
  22073502.460    22073501.7714   22073504.6974  115997032.572 7  90387319.87544
      2651.506        2066.106
  21841070.947    21841070.0164   21841069.9084  114775603.256 7  89435547.16844
       194.581         151.619
  23859338.937    23859338.2364   23859339.2574  125381663.895 5  97700014.79741
     -2670.839       -2081.194
  20543677.637    20543677.1814   20543679.1544  107957753.116 8  84122940.52146
     -1842.510       -1435.711
  21520693.637    21520693.8784   21520694.7274  113092010.510 7  88123657.52845
     -2385.552       -1858.867
  23497627.295    23497626.4854   23497629.1174  123480845.376 5  96218860.69141
     -2922.994       -2277.659
  23854232.566    23854232.9874   23854237.4334  125354841.943 5  97679123.50941
      3610.149        2813.090
  20986980.486    20986981.0004   20986982.4624  110287332.288 8  85938192.29446
      2050.382        1597.702
  19743521.825    19743521.8214   19743522.8234  103752904.205 9  80846433.44347
         5.741           4.478
  22162386.420    22162386.5724   22162386.1564  116464126.143 7  90751279.68044
      2238.585        1744.364
  22963281.708    22963281.292    22963280.674   122924229.283 6  95607779.447 5
      -832.965        -647.873
  20424635.505    20424634.829    20424639.473   109296341.437 8  85008297.142 7
     -3324.348       -2585.601
  19310869.997    19310869.844    19310873.301   103191434.275 8  80260035.610 7
       920.680         716.084
  20274882.982    20274881.179    20274883.889   108304790.960 8  84237088.768 7
      2736.357        2128.283
  22741380.985    22741380.352    22741383.957   121651056.772 5  94617520.968 5
     -4109.689       -3196.409
  19167001.652    19167001.165    19167003.259   102494569.932 9  79718030.987 7
     -1114.785        -867.054
 08 11 18  9 17 30.0000000  0 16G 1G 2G 4G 5G12G14G24G29G30G31R 7R14
                                R15R17R23R24
  22065937.893    22065936.8554   22065939.7624  115957278.717 7  90356342.85644
      2648.380        2063.667
  21840526.381    21840525.8284   21840525.4914  114772741.880 7  89433317.52645
       186.453         145.292
  23866967.753    23866969.0324   23866969.7044  125421759.633 5  97731258.20041
     -2676.002       -2085.181
  20548943.093    20548942.6154   20548944.6924  107985423.561 8  84144501.89846
     -1847.585       -1439.668
  21527506.232    21527506.2034   21527507.1354  113127810.254 7  88151553.41745
     -2388.604       -1861.243
  23505974.520    23505974.5454   23505976.8174  123524711.938 5  96253042.39441
     -2926.607       -2280.454
  23843927.241    23843926.4514   23843930.3234  125300684.488 5  97636922.84341
      3610.102        2813.046
  20981134.616    20981134.5904   20981136.0204  110256609.400 8  85914252.39046
      2045.261        1593.719
  19743513.516    19743513.4494   19743514.5114  103752860.463 8  80846399.35547
        -0.629          -0.483
  22156001.391    22156002.1844   22156002.4564  116430578.198 7  90725138.42144
      2233.714        1740.554
  22965629.425    22965629.888    22965629.105   122936800.284 6  95617556.874 5
      -844.187        -656.595
  20433961.685    20433961.732    20433966.359   109346251.738 8  85047116.255 7
     -3331.177       -2590.917
  19308299.211    19308298.871    19308302.342   103177695.459 8  80249349.868 7
       910.379         708.069
  20267206.704    20267205.173    20267208.010   108263786.700 8  84205196.572 7
      2730.040        2123.359
  22752905.353    22752904.679    22752906.682   121712698.917 6  94665464.847 5
     -4109.803       -3196.509
  19170139.846    19170139.344    19170141.515   102511351.151 9  79731083.050 7
     -1123.485        -873.814
 08 11 18  9 17 45.0000000  0 16G 1G 2G 4G 5G12G14G24G29G30G31R 7R14
                                R15R17R23R24
  22058381.759    22058381.2504   22058384.0494  115917573.702 7  90325403.88944
      2645.115        2061.145
  21840005.391    21840005.4184   21840005.0294  114770006.969 7  89431186.42844
       177.828         138.568
  23874614.119    23874614.0464   23874615.2234  125461936.940 5  97762565.19741
     -2681.326       -2089.311
  20554223.866    20554223.2974   20554225.3534  108013173.361 8  84166125.10346
     -1852.858       -1443.784
  21534328.126    21534328.0324   21534328.9134  113163658.700 7  88179487.26045
     -2391.762       -1863.713
  23514333.092    23514331.5224   23514333.5854  123568634.412 5  96287267.65441
     -2930.013       -2283.068
  23833622.865    23833623.2254   23833627.3894  125246532.189 5  97594726.18441
      3609.989        2812.983
  20975303.661    20975303.4414   20975304.9694  110225966.908 7  85890375.12546
      2040.042        1589.650
  19743523.945    19743524.0694   19743525.1294  103752916.442 9  80846442.97447
        -7.264          -5.660
  22149632.439    22149632.7024   22149632.8514  116397106.182 7  90699056.33344
      2228.681        1736.630
  22968010.302    22968009.337    22968008.927   122949538.587 6  95627464.424 5
      -854.981        -664.982
  20443308.681    20443308.666    20443313.242   109396268.873 8  85086018.450 7
     -3338.215       -2596.386
  19305757.198    19305757.062    19305760.514   103164113.165 8  80238785.866 7
       900.066         700.051
  20259549.230    20259547.940    20259550.672   108222882.704 8  84173382.366 7
      2723.390        2118.187
  22764429.714    22764428.165    22764431.697   121774347.850 5  94713413.988 5
     -4110.586       -3197.123
  19173302.808    19173302.463    19173304.699   102528265.995 9  79744239.040 7
     -1132.323        -880.702
 08 11 18  9 18  0.0000000  0 16G 1G 2G 4G 5G12G14G24G29G30G31R 7R14
                                R15R17R23R24
  22050835.322    22050834.5854   22050837.2454  115877914.977 7  90294501.00644
      2641.762        2058.513
  21839508.477    21839508.4224   21839508.3774  114767395.868 7  89429151.80644
       169.551         132.130
  23882273.245    23882273.6564   23882276.6704  125502192.826 5  97793933.39841
     -2686.861       -2093.706
  20559519.155    20559518.4634   20559520.3994  108040999.644 8  84187807.91346
     -1858.067       -1447.842
  21541158.503    21541158.5194   21541159.2594  113199553.042 7  88207456.86745
     -2394.867       -1866.128
  23522700.321    23522701.1274   23522701.5464  123612609.733 5  96321534.11441
     -2933.844       -2286.142
  23823319.209    23823319.1894   23823322.3234  125192382.719 5  97552531.75641
      3609.661        2812.739
  20969486.935    20969487.1304   20969488.7384  110195402.174 8  85866558.45746
      2034.576        1585.388
  19743553.172    19743553.2364   19743554.2644  103753069.413 8  80846562.17147
       -13.793         -10.742
  22143277.004    22143277.2434   22143277.1844  116363707.590 7  90673031.46344
      2223.658        1732.716
  22970420.271    22970419.527    22970418.922   122962441.238 6  95637499.827 5
      -866.072        -673.606
  20452674.911    20452674.882    20452679.364   109446389.497 8  85125001.148 7
     -3345.207       -2601.825
  19303244.274    19303244.206    19303247.485   103150684.623 8  80228341.446 7
       889.649         691.956
  20251910.201    20251908.855    20251911.704   108182076.305 8  84141644.072 7
      2716.724        2113.007
  22775954.292    22775953.408    22775957.001   121836000.185 5  94761365.773 5
     -4110.357       -3196.936
  19176490.544    19176490.011    19176492.328   102545311.396 9  79757496.573 7
     -1141.109        -887.528
 08 11 18  9 18 15.0000000  0 16G 1G 2G 4G 5G12G14G24G29G30G31R 7R14
                                R15R17R23R24
  22043297.707    22043297.1514   22043300.0104  115838305.333 7  90263636.36344
      2638.552        2056.006
  21839036.279    21839035.5044   21839035.3574  114764911.296 7  89427215.78344
       160.773         125.266
  23889949.344    23889949.7354   23889951.6564  125542529.704 5  97825364.70941
     -2692.313       -2097.948
  20564829.303    20564828.6374   20564830.6544  108068905.012 8  84209552.34646
     -1863.489       -1452.061
  21547998.122    21547998.1924   21547999.0654  113235495.978 7  88235464.33845
     -2398.312       -1868.811
  23531079.344    23531079.6164   23531081.2604  123656640.077 5  96355843.44841
     -2937.790       -2289.175
  23813015.906    23813016.4904   23813018.2774  125138239.245 5  97510341.93741
      3608.810        2812.035
  20963686.135    20963686.1634   20963687.7794  110164918.068 8  85842804.61246
      2029.037        1581.074
  19743600.982    19743601.3504   19743602.4154  103753322.106 8  80846759.07347
       -20.670         -16.108
  22136935.780    22136936.1354   22136936.3974  116330385.424 7  90647066.13044
      2218.322        1728.557
  22972861.739    22972861.346    22972860.320   122975511.060 6  95647665.234 5
      -877.455        -682.474
  20462061.061    20462060.929    20462065.638   109496616.130 8  85164066.285 7
     -3352.520       -2607.509
  19300760.618    19300760.635    19300764.024   103137413.008 8  80218019.076 7
       879.137         683.772
  20244290.407    20244288.555    20244291.245   108141370.499 8  84109984.013 7
      2709.946        2107.741
  22787480.615    22787479.907    22787483.344   121897658.649 5  94809322.341 5
     -4111.362       -3197.721
  19179703.089    19179702.487    19179704.755   102562490.125 9  79770857.806 7
     -1150.194        -894.605
 08 11 18  9 18 30.0000000  0 16G 1G 2G 4G 5G12G14G24G29G30G31R 7R14
                                R15R17R23R24
  22035769.532    22035768.7624   22035771.7564  115798743.585 7  90232809.03644
      2635.549        2053.636
  21838586.648    21838586.5664   21838586.4984  114762551.806 7  89425377.22144
       152.698         118.983
  23897641.089    23897641.4424   23897643.8604  125582945.798 5  97856857.75141
     -2697.518       -2101.933
  20570154.315    20570153.5904   20570155.6374  108096887.885 8  84231357.17146
     -1868.291       -1455.803
  21554846.667    21554846.9724   21554847.6574  113271485.863 7  88263508.39045
     -2401.271       -1871.115
  23539468.065    23539467.5734   23539470.2704  123700723.619 5  96390194.23441
     -2940.719       -2291.525
  23802714.507    23802713.0244   23802717.4954  125084100.484 5  97468155.82341
      3609.340        2812.517
  20957900.274    20957900.4014   20957901.9764  110134513.233 8  85819112.54046
      2024.141        1577.254
  19743667.779    19743668.1264   19743669.2324  103753673.044 9  80847032.52847
       -26.879         -20.939
  22130609.766    22130609.5474   22130609.5324  116297138.570 7  90621159.49944
      2213.690        1724.958
  22975334.045    22975333.882    22975333.068   122988746.303 6  95657959.302 5
      -888.047        -690.705
  20471466.515    20471466.482    20471471.063   109546947.078 8  85203212.561 7
     -3359.121       -2612.643
  19298306.016    19298305.963    19298309.640   103124296.966 8  80207817.714 8
       868.894         675.819
  20236688.477    20236686.849    20236689.618   108100763.936 8  84078401.142 7
      2703.469        2102.706
  22799009.676    22799007.533    22799010.292   121959321.501 5  94857282.315 5
     -4111.183       -3197.581
  19182940.235    19182939.653    19182941.903   102579800.427 9  79784321.374 7
     -1158.719        -901.220
 08 11 18  9 18 45.0000000  0 16G 1G 2G 4G 5G12G14G24G29G30G31R 7R14
                                R15R17R23R24
  22028250.558    22028249.8234   22028252.6754  115759232.046 7  90202020.83144
      2632.002        2050.929
  21838161.896    21838162.0094   21838161.4994  114760319.763 7  89423637.96744
       144.181         112.349
  23905347.857    23905347.8524   23905349.4284  125623443.002 5  97888413.99741
     -2702.989       -2106.220
  20575494.397    20575493.8214   20575495.7854  108124950.406 8  84253224.05946
     -1873.904       -1460.174
  21561704.696    21561704.9204   21561705.7554  113307524.713 7  88291590.60045
     -2404.597       -1873.707
  23547867.287    23547866.3844   23547869.1304  123744862.296 5  96424587.97641
     -2944.899       -2294.724
  23792411.921    23792412.3264   23792416.8104  125029969.193 5  97425975.53941
      3607.775        2811.292
  20952130.122    20952130.1584   20952131.5894  110104190.108 8  85795484.13746
      2018.357        1572.751
  19743754.034    19743753.9504   19743755.0464  103754124.453 8  80847384.27347
       -33.847         -26.370
  22124297.356    22124297.6334   22124297.7834  116263969.615 6  90595313.55344
      2208.261        1720.720
  22977836.705    22977837.097    22977836.114   123002148.958 6  95668383.592 5
      -899.512        -699.629
  20480892.143    20480891.838    20480896.344   109597384.093 8  85242441.332 7
     -3366.517       -2618.397
  19295881.148    19295881.162    19295884.471   103111339.160 8  80197739.423 7
       858.133         667.447
  20229106.009    20229104.447    20229107.047   108060259.058 8  84046897.360 7
      2696.571        2097.339
  22810537.120    22810535.468    22810539.175   122020990.556 5  94905247.112 5
     -4111.781       -3198.037
  19186202.298    19186201.760    19186203.941   102597244.337 9  79797888.858 7
     -1167.798        -908.279
 08 11 18  9 19  0.0000000  0 16G 1G 2G 4G 5G12G14G24G29G30G31R 7R14
                                R15R17R23R24
  22020742.123    22020741.0944   22020744.1454  115719773.733 7  90171274.11144
      2628.362        2048.074
  21837762.185    21837761.8784   21837761.6454  114758218.101 7  89422000.30844
       135.118         105.295
  23913069.528    23913069.3464   23913071.7334  125664023.900 5  97920035.46941
     -2708.659       -2110.629
  20580850.227    20580849.6084   20580851.5854  108153095.314 8  84275155.14446
     -1879.413       -1464.479
  21568572.780    21568572.8314   21568573.5764  113343615.367 7  88319713.18045
     -2408.132       -1876.469
  23556277.730    23556276.9134   23556279.8874  123789058.406 4  96459026.47441
     -2948.672       -2297.652
  23782113.795    23782113.4434   23782117.0444  124975848.527 5  97383803.56141
      3606.929        2810.649
  20946375.975    20946376.0004   20946377.3404  110073951.618 8  85771921.68146
      2012.646        1568.302
  19743859.524    19743859.5584   19743860.6394  103754679.361 8  80847816.66147
       -40.911         -31.875
  22118001.102    22118001.2514   22118001.4554  116230881.662 7  90569530.73844
      2202.625        1716.332
  22980373.862    22980373.060    22980372.231   123015721.990 6  95678940.386 5
      -910.876        -708.463
  20490337.326    20490337.501    20490342.180   109647929.578 8  85281754.471 7
     -3373.781       -2624.047
  19293486.603    19293486.399    19293489.890   103098542.486 8  80187786.451 7
       847.200         658.938
  20221542.975    20221541.583    20221544.209   108019859.110 8  84015475.189 7
      2689.317        2091.686
  22822066.723    22822065.811    22822069.481   122082668.193 5  94953218.581 5
     -4112.387       -3198.534
  19189490.044    19189489.286    19189491.596   102614824.556 9  79811562.362 7
     -1177.034        -915.473
 08 11 18  9 19 15.0000000  0 16G 1G 2G 4G 5G12G14G24G29G30G31R 7R14
                                R15R17R23R24
  22013243.011    22013242.8444   22013245.8394  115680369.482 7  90140569.51344
      2625.022        2045.468
  21837387.619    21837387.0034   21837386.7504  114756247.600 7  89420464.85244
       126.743          98.761
  23920807.484    23920808.5254   23920809.7454  125704688.943 5  97951722.48841
     -2714.146       -2114.901
  20586221.737    20586221.1204   20586223.1494  108181323.169 8  84297150.86546
     -1884.825       -1468.691
  21575450.307    21575450.4774   21575451.3194  113379758.336 7  88347876.52445
     -2411.451       -1879.046
  23564699.297    23564699.9044   23564701.4034  123833312.443 5  96493510.09841
     -2952.371       -2300.548
  23771817.178    23771816.9484   23771821.1394  124921739.524 5  97341640.68241
      3606.594        2810.309
  20940638.178    20940638.1014   20940639.5554  110043798.692 7  85748425.90246
      2007.046        1563.938
  19743985.035    19743984.9714   19743986.0994  103755338.469 8  80848330.25147
       -47.641         -37.123
  22111720.183    22111720.4274   22111720.5394  116197875.640 6  90543811.75544
      2197.409        1712.286
  22982942.136    22982940.992    22982939.803   123029465.619 6  95689629.861 5
      -922.281        -717.330
  20499803.536    20499803.535    20499808.135   109698583.984 8  85321152.324 7
     -3380.843       -2629.542
  19291122.248    19291122.076    19291125.665   103085908.284 8  80177959.851 7
       836.615         650.703
  20213999.347    20213997.988    20214000.863   107979565.022 8  83984135.353 7
      2682.553        2086.432
  22833599.782    22833597.839    22833600.254   122144354.966 5  95001197.144 5
     -4113.054       -3199.038
  19192802.760    19192802.429    19192804.707   102632541.333 9  79825342.075 7
     -1185.869        -922.343
 08 11 18  9 19 30.0000000  0 16G 1G 2G 4G 5G12G14G24G29G30G31R 7R14
                                R15R17R23R24
  22005754.972    22005754.4574   22005757.3594  115641018.469 6  90109906.39444
      2621.150        2042.452
  21837037.000    21837036.6924   21837036.6374  114754407.126 7  89419030.72044
       118.205          92.108
  23928562.012    23928562.2354   23928564.4334  125745436.650 5  97983473.92441
     -2719.914       -2119.396
  20591609.082    20591608.2874   20591610.3574  108209632.762 8  84319210.27646
     -1890.570       -1473.173
  21582338.102    21582337.8934   21582338.8244  113415952.544 7  88376079.79145
     -2415.068       -1881.864
  23573131.647    23573132.0264   23573133.1504  123877622.876 5  96528037.67541
     -2956.705       -2303.935
  23761521.942    23761521.7004   23761526.6634  124867641.589 5  97299486.47241
      3604.858        2809.005
  20934916.336    20934916.2024   20934917.6654  110013730.267 7  85724995.96446
      2001.244        1559.412
  19744129.955    19744130.0904   19744131.0944  103756100.687 8  80848924.18347
       -54.705         -42.623
  22105454.441    22105454.8784   22105455.2844  116164950.811 7  90518156.04744
      2191.843        1707.944
  22985539.841    22985539.194    22985537.697   123043378.556 6  95700451.026 5
      -933.812        -726.296
  20509290.123    20509289.570    20509294.325   109749345.958 8  85360633.836 7
     -3388.281       -2635.323
  19288788.157    19288787.926    19288791.520   103073435.606 9  80168258.877 7
       825.671         642.193
  20206475.989    20206474.739    20206477.454   107939375.913 8  83952877.168 7
      2675.243        2080.753
  22845132.474    22845131.179    22845134.416   122206049.414 5  95049181.709 5
     -4113.924       -3199.709
  19196141.481    19196140.937    19196143.082   102650393.361 9  79839226.988 7
     -1195.105        -929.521
 08 11 18  9 19 45.0000000  0 16G 1G 2G 4G 5G12G14G24G29G30G31R 7R14
                                R15R17R23R24
  21998276.823    21998276.2924   21998279.0224  115601720.290 7  90079284.45144
      2617.905        2039.932
  21836711.782    21836710.9784   21836711.0624  114752696.242 7  89417697.55844
       109.625          85.424
  23936332.145    23936331.9344   23936333.5154  125786266.175 5  98015289.12141
     -2724.967       -2123.400
  20597011.462    20597010.8444   20597012.9474  108238023.499 8  84341332.92146
     -1895.716       -1477.172
  21589235.135    21589235.2014   21589236.0584  113452197.307 7  88404322.45245
     -2418.189       -1884.292
  23581573.451    23581573.7244   23581574.6604  123921988.729 5  96562608.45141
     -2960.145       -2306.625
  23751230.136    23751229.5474   23751232.6334  124813554.520 5  97257340.71441
      3605.377        2809.365
  20929210.188    20929210.3804   20929211.7784  109983745.982 8  85701631.59246
      1995.875        1555.238
  19744294.464    19744294.6834   19744295.6934  103756965.706 8  80849598.22347
       -61.306         -47.758
  22099205.042    22099204.9274   22099205.4544  116132106.916 7  90492563.39844
      2186.647        1703.885
  22988170.089    22988169.651    22988169.166   123057460.477 6  95711403.642 5
      -944.523        -734.625
  20518796.212    20518795.685    20518800.369   109800214.644 8  85400198.356 7
     -3395.014       -2640.546
  19286484.164    19286484.053    19286487.471   103061123.709 8  80158682.956 7
       815.164         634.029
  20198972.700    20198971.060    20198973.499   107899291.541 8  83921700.446 7
      2668.573        2075.571
  22856665.044    22856664.822    22856668.723   122267750.600 5  95097171.499 5
     -4113.606       -3199.460
  19199504.966    19199504.536    19199506.764   102668379.945 9  79853216.554 7
     -1203.809        -936.278
 08 11 18  9 20  0.0000000  0 16G 1G 2G 4G 5G12G14G24G29G30G31R 7R14
                                R15R17R23R24
  21990809.295    21990808.3704   21990811.1574  115562476.442 7  90048704.83444
      2614.304        2037.117
  21836411.216    21836410.3034   21836410.4024  114751116.282 7  89416466.42345
       100.725          78.485
  23944116.603    23944116.9904   23944119.9274  125827178.547 5  98047168.88041
     -2730.304       -2127.520
  20602429.710    20602429.1764   20602431.1694  108266496.574 8  84363519.72046
     -1901.106       -1481.373
  21596142.120    21596142.1754   21596143.1154  113488493.862 7  88432605.47545
     -2421.711       -1887.052
  23590027.615    23590026.3154   23590028.5734  123966410.998 5  96597223.17141
     -2963.900       -2309.549
  23740939.617    23740940.1534   23740943.8884  124759480.108 5  97215204.82941
      3604.217        2808.496
  20923520.622    20923520.9314   20923522.2664  109953847.435 7  85678334.02346
      1990.131        1550.757
  19744478.959    19744479.0834   19744480.1194  103757934.751 8  80850353.32347
       -68.247         -53.179
  22092970.651    22092970.5944   22092970.9564  116099345.524 7  90467035.04444
      2181.155        1699.615
  22990832.840    22990832.099    22990832.345   123071712.404 6  95722488.464 5
      -955.778        -743.370
  20528322.092    20528321.827    20528326.492   109851190.903 8  85439846.539 7
     -3402.236       -2646.186
  19284210.432    19284210.408    19284213.841   103048974.651 8  80149233.686 7
       804.302         625.565
  20191488.163    20191486.823    20191489.464   107859313.315 8  83890606.284 7
      2661.400        2069.978
  22868203.848    22868201.108    22868204.143   122329459.700 5  95145167.429 5
     -4114.630       -3200.273
  19202893.870    19202893.402    19202895.574   102686502.066 9  79867311.536 7
     -1212.911        -943.374
 08 11 18  9 20 15.0000000  0 16G 1G 2G 4G 5G12G14G24G29G30G31R 7R14
                                R15R17R23R24
  21983352.090    21983350.7484   21983353.7104  115523285.356 7  90018166.33044
      2610.680        2034.307
  21836134.890    21836134.3834   21836134.5044  114749665.565 7  89415335.99544
        92.199          71.850
  23951917.988    23951917.3524   23951919.6354  125868171.627 5  98079111.51141
     -2736.072       -2132.008
  20607863.395    20607862.6774   20607864.7494  108295050.185 8  84385769.27646
     -1906.639       -1485.680
  21603058.902    21603058.8354   21603059.4974  113524840.443 8  88460927.47745
     -2425.164       -1889.732
  23598490.005    23598490.0534   23598492.7824  124010887.664 5  96631880.30341
     -2967.497       -2312.300
  23730651.526    23730652.5604   23730654.7564  124705417.006 5  97173077.81241
      3603.369        2807.882
  20917847.143    20917847.4124   20917848.8284  109924033.158 8  85655102.12246
      1984.471        1546.345
  19744682.908    19744683.0304   19744684.0244  103759006.189 8  80851188.20947
       -75.143         -58.553
  22086751.311    22086751.7384   22086752.2344  116066665.282 7  90441569.91944
      2175.556        1695.261
  22993527.727    22993526.341    22993526.070   123086132.317 6  95733703.947 5
      -967.423        -752.434
  20537867.983    20537867.693    20537872.421   109902272.976 8  85479577.019 7
     -3409.339       -2651.705
  19281967.552    19281967.179    19281970.595   103036986.913 8  80139909.886 7
       793.376         617.086
  20184023.871    20184022.556    20184024.888   107819439.980 8  83859593.699 7
      2654.386        2064.523
  22879738.350    22879737.796    22879741.065   122391174.550 5  95193167.843 5
     -4114.591       -3200.235
  19206307.773    19206307.274    19206309.486   102704757.782 9  79881510.429 7
     -1221.825        -950.294
 08 11 18  9 20 30.0000000  0 16G 1G 2G 4G 5G12G14G24G29G30G31R 7R14
                                R15R17R23R24
  21975904.120    21975903.8754   21975906.6694  115484152.247 7  89987673.00844
      2606.534        2031.059
  21835884.912    21835883.8344   21835883.6474  114748349.209 7  89414310.26444
        82.691          64.417
  23959734.201    23959735.6644   23959737.5504  125909250.284 5  98111120.84041
     -2741.731       -2136.457
  20613313.509    20613312.6114   20613314.6234  108323689.265 8  84408085.43346
     -1912.587       -1490.336
  21609985.527    21609985.6604   21609986.4384  113561241.891 7  88489292.23745
     -2429.136       -1892.837
  23606965.045    23606965.7354   23606967.3774  124055423.584 5  96666583.57141
     -2971.351       -2315.298
  23720368.214    23720367.8354   23720371.5934  124651370.688 5  97130963.86241
      3601.874        2806.659
  20912190.805    20912190.9774   20912192.4084  109894308.196 8  85631939.81546
      1978.222        1541.471
  19744907.142    19744907.3044   19744908.3604  103760185.011 8  80852106.76947
       -82.687         -64.440
  22080549.079    22080549.3214   22080549.3804  116034071.519 7  90416172.18044
      2169.490        1690.510
  22996252.847    22996252.169    22996251.457   123100725.941 6  95745054.549 5
      -979.154        -761.565
  20547434.467    20547434.244    20547439.103   109953465.340 8  85519393.282 7
     -3417.050       -2657.708
  19279755.090    19279755.011    19279758.613   103025165.920 8  80130715.783 7
       782.061         608.262
  20176579.956    20176578.796    20176581.408   107779676.727 8  83828666.738 7
      2646.718        2058.546
  22891279.204    22891277.145    22891279.971   122452900.059 5  95241176.545 5
     -4115.794       -3201.169
  19209747.706    19209747.083    19209749.275   102723151.962 9  79895817.019 7
     -1231.402        -957.768
 08 11 18  9 20 45.0000000  0 16G 1G 2G 4G 5G12G14G24G29G30G31R 7R14
                                R15R17R23R24
  21968469.521    21968468.4804   21968471.0644  115445078.210 7  89957225.71544
      2602.733        2028.095
  21835659.241    21835659.0524   21835658.8554  114747168.142 7  89413389.95544
        74.083          57.711
  23967568.242    23967567.7184   23967571.6704  125950415.183 5  98143197.35841
     -2747.512       -2140.911
  20618779.329    20618778.8414   20618780.8924  108352414.514 8  84430468.73446
     -1918.102       -1494.625
  21616922.995    21616923.2064   21616924.1104  113597698.944 7  88517700.31945
     -2432.479       -1895.438
  23615452.187    23615451.3224   23615453.9374  124100019.060 5  96701333.25941
     -2975.049       -2318.218
  23710086.970    23710086.3384   23710089.8654  124597342.200 5  97088863.81941
      3601.113        2806.035
  20906551.638    20906551.6354   20906553.0864  109864673.499 8  85608847.84746
      1972.360        1536.896
  19745152.084    19745152.2574   19745153.2494  103761472.166 8  80853109.74747
       -89.605         -69.829
  22074363.597    22074363.6524   22074363.9554  116001565.343 7  90390842.69844
      2163.993        1686.235
  22999011.801    22999011.144    22999010.683   123115493.287 6  95756540.253 5
      -990.607        -770.470
  20557021.873    20557021.406    20557026.269   110004768.493 8  85559295.721 7
     -3424.200       -2663.270
  19277574.515    19277574.340    19277577.831   103013512.804 8  80121652.247 7
       771.045         599.703
  20169157.190    20169155.905    20169158.446   107740024.678 8  83797826.270 7
      2639.529        2052.960
  22902818.691    22902817.601    22902821.208   122514636.736 5  95289193.949 5
     -4116.305       -3201.577
  19213213.832    19213212.988    19213215.203   102741685.247 9  79910231.798 7
     -1240.418        -964.768
 08 11 18  9 21  0.0000000  0 16G 1G 2G 4G 5G12G14G24G29G30G31R 7R14
                                R15R17R23R24
  21961044.847    21961043.9474   21961046.8204  115406063.025 7  89926824.28544
      2598.888        2025.105
  21835460.529    21835460.0404   21835459.9644  114746122.181 7  89412574.91645
        65.139          50.756
  23975418.023    23975418.3674   23975419.9604  125991665.674 5  98175340.58641
     -2752.881       -2145.149
  20624261.997    20624261.3874   20624263.4754  108381225.595 8  84452918.91446
     -1923.811       -1499.071
  21623871.493    21623871.3334   21623872.2814  113634211.196 7  88546151.42145
     -2436.176       -1898.304
  23623948.928    23623948.6264   23623950.1634  124144673.467 5  96736128.84441
     -2978.974       -2321.327
  23699808.485    23699808.2224   23699812.0634  124543331.767 5  97046777.82041
      3600.127        2805.354
  20900929.257    20900929.4744   20900930.8294  109835129.024 8  85585826.17846
      1966.571        1532.400
  19745417.681    19745417.7284   19745418.8144  103762867.418 8  80854196.95447
       -96.812         -75.440
  22068194.706    22068194.8044   22068195.0564  115969146.835 7  90365581.51044
      2158.171        1681.685
  23001801.566    23001801.694    23001800.970   123130434.036 6  95768160.848 5
     -1002.062        -779.383
  20566629.795    20566629.358    20566634.171   110056182.340 8  85599284.253 7
     -3431.365       -2668.846
  19275425.029    19275424.774    19275428.437   103002026.799 8  80112718.686 7
       759.940         591.070
  20161755.177    20161753.589    20161756.151   107700483.738 8  83767072.210 7
      2632.224        2047.279
  22914362.476    22914361.199    22914364.804   122576383.792 5  95337219.408 5
     -4117.080       -3202.176
  19216705.085    19216704.606    19216706.837   102760357.137 9  79924754.383 7
     -1249.533        -971.864
